Time,TemperatureF,DewpointF,PressureIn,WindDirection,WindDirectionDegrees,WindSpeedMPH,WindSpeedGustMPH,Humidity,HourlyPrecipIn,Conditions,Clouds,dailyrainin,SoftwareType,DateUTC
2013-06-29 08:21:00,71.4,35.7,30.15,SSW,202,0.9,0.9,27,0.00,,,0.00,VWS V14.00,2013-06-29 15:21:00,
2013-06-29 08:22:00,92.7,41.5,30.12,SW,225,0.0,0.9,17,0.00,,,0.00,VWS V14.00,2013-06-29 15:22:00,
2013-06-29 08:23:00,93.2,42.0,30.12,SW,225,0.0,0.0,17,0.00,,,0.00,VWS V14.00,2013-06-29 15:23:00,
2013-06-29 08:24:00,93.2,42.0,30.12,SW,225,0.0,0.0,17,0.00,,,0.00,VWS V14.00,2013-06-29 15:24:00,
2013-06-29 08:25:00,93.7,42.4,30.12,SW,225,0.0,0.0,17,0.00,,,0.00,VWS V14.00,2013-06-29 15:25:00,
2013-06-29 08:26:00,94.3,42.8,30.12,SW,225,0.0,0.0,17,0.00,,,0.00,VWS V14.00,2013-06-29 15:26:00,
2013-06-29 08:27:00,94.3,42.8,30.12,South,180,0.0,0.0,17,0.00,,,0.00,VWS V14.00,2013-06-29 15:27:00,
2013-06-29 08:28:00,94.3,42.8,30.12,SW,225,1.1,1.1,17,0.00,,,0.00,VWS V14.00,2013-06-29 15:28:00,
2013-06-29 08:29:00,94.5,43.0,30.12,West,270,2.7,2.7,17,0.00,,,0.00,VWS V14.00,2013-06-29 15:29:00,
2013-06-29 08:30:00,94.6,43.1,30.12,WSW,248,2.5,2.7,17,0.00,,,0.00,VWS V14.00,2013-06-29 15:30:00,
2013-06-29 08:31:00,94.6,43.1,30.12,SW,225,0.0,0.0,17,0.00,,,0.00,VWS V14.00,2013-06-29 15:31:00,
2013-06-29 08:32:00,95.2,42.0,30.12,SSW,202,2.0,2.0,16,0.00,,,0.00,VWS V14.00,2013-06-29 15:32:00,
2013-06-29 08:33:00,95.2,42.0,30.12,WNW,292,2.5,2.5,16,0.00,,,0.00,VWS V14.00,2013-06-29 15:33:00,
2013-06-29 08:34:00,95.4,42.1,30.12,WNW,292,2.5,2.5,16,0.00,,,0.00,VWS V14.00,2013-06-29 15:34:00,
2013-06-29 08:35:00,95.4,42.1,30.12,NW,315,2.0,2.5,16,0.00,,,0.00,VWS V14.00,2013-06-29 15:35:00,
2013-06-29 08:36:00,95.9,42.5,30.12,West,270,0.9,2.0,16,0.00,,,0.00,VWS V14.00,2013-06-29 15:36:00,
2013-06-29 08:37:00,95.9,42.5,30.12,West,270,0.0,0.9,16,0.00,,,0.00,VWS V14.00,2013-06-29 15:37:00,
2013-06-29 08:38:00,96.4,43.0,30.12,West,270,0.0,0.0,16,0.00,,,0.00,VWS V14.00,2013-06-29 15:38:00,
2013-06-29 08:39:00,96.4,43.0,30.12,West,270,0.0,0.0,16,0.00,,,0.00,VWS V14.00,2013-06-29 15:39:00,
2013-06-29 08:40:00,96.4,43.0,30.12,West,270,0.0,0.0,16,0.00,,,0.00,VWS V14.00,2013-06-29 15:40:00,
2013-06-29 08:41:00,97.0,43.4,30.12,WNW,292,1.3,1.3,16,0.00,,,0.00,VWS V14.00,2013-06-29 15:41:00,
2013-06-29 08:42:00,97.0,43.4,30.12,WNW,292,1.3,1.3,16,0.00,,,0.00,VWS V14.00,2013-06-29 15:42:00,
2013-06-29 08:43:00,97.0,43.4,30.12,NW,315,3.6,3.6,16,0.00,,,0.00,VWS V14.00,2013-06-29 15:43:00,
2013-06-29 08:44:00,97.0,43.4,30.12,West,270,0.9,3.6,16,0.00,,,0.00,VWS V14.00,2013-06-29 15:44:00,
2013-06-29 08:45:00,97.0,43.4,30.12,NW,315,0.0,0.9,16,0.00,,,0.00,VWS V14.00,2013-06-29 15:45:00,
2013-06-29 08:46:00,97.3,43.7,30.12,SSE,158,0.0,0.0,16,0.00,,,0.00,VWS V14.00,2013-06-29 15:46:00,
2013-06-29 08:47:00,97.3,43.7,30.12,SSW,202,0.9,0.9,16,0.00,,,0.00,VWS V14.00,2013-06-29 15:47:00,
2013-06-29 08:48:00,97.9,44.1,30.12,North,0,1.6,1.6,16,0.00,,,0.00,VWS V14.00,2013-06-29 15:48:00,
2013-06-29 08:49:00,97.9,44.1,30.12,WNW,292,3.4,3.4,16,0.00,,,0.00,VWS V14.00,2013-06-29 15:49:00,
2013-06-29 08:50:00,97.3,43.7,30.12,NNW,338,2.5,3.4,16,0.00,,,0.00,VWS V14.00,2013-06-29 15:50:00,
2013-06-29 08:51:00,97.5,43.8,30.12,NW,315,2.9,2.9,16,0.00,,,0.00,VWS V14.00,2013-06-29 15:51:00,
2013-06-29 08:52:00,97.5,43.8,30.12,NW,315,2.0,2.9,16,0.00,,,0.00,VWS V14.00,2013-06-29 15:52:00,
2013-06-29 08:53:00,97.0,43.4,30.12,WNW,292,2.2,2.2,16,0.00,,,0.00,VWS V14.00,2013-06-29 15:53:00,
2013-06-29 08:54:00,97.0,43.4,30.12,West,270,2.7,2.7,16,0.00,,,0.00,VWS V14.00,2013-06-29 15:54:00,
2013-06-29 08:55:00,95.4,42.1,30.12,WSW,248,1.3,2.7,16,0.00,,,0.00,VWS V14.00,2013-06-29 15:55:00,
2013-06-29 08:56:00,94.3,41.2,30.12,WSW,248,0.9,0.9,16,0.00,,,0.00,VWS V14.00,2013-06-29 15:56:00,
2013-06-29 08:57:00,94.3,41.2,30.12,WSW,248,0.9,0.9,16,0.00,,,0.00,VWS V14.00,2013-06-29 15:57:00,
2013-06-29 08:58:00,94.3,41.2,30.12,SW,225,0.9,0.9,16,0.00,,,0.00,VWS V14.00,2013-06-29 15:58:00,
2013-06-29 08:59:00,93.4,40.5,30.12,SW,225,0.0,0.9,16,0.00,,,0.00,VWS V14.00,2013-06-29 15:59:00,
2013-06-29 09:00:00,93.4,40.5,30.12,SW,225,0.0,0.0,16,0.00,,,0.00,VWS V14.00,2013-06-29 16:00:00,
2013-06-29 09:01:00,91.9,36.0,30.12,WSW,248,0.0,0.0,14,0.00,,,0.00,VWS V14.00,2013-06-29 16:01:00,
2013-06-29 09:02:00,91.9,36.0,30.12,SSW,202,0.0,0.0,14,0.00,,,0.00,VWS V14.00,2013-06-29 16:02:00,
2013-06-29 09:03:00,91.9,36.0,30.12,SSW,202,0.0,0.0,14,0.00,,,0.00,VWS V14.00,2013-06-29 16:03:00,
2013-06-29 09:04:00,91.2,37.2,30.12,SSE,158,0.0,0.0,15,0.00,,,0.00,VWS V14.00,2013-06-29 16:04:00,
2013-06-29 09:05:00,91.2,37.2,30.12,SSE,158,0.0,0.0,15,0.00,,,0.00,VWS V14.00,2013-06-29 16:05:00,
2013-06-29 09:06:00,90.5,39.8,30.12,SW,225,0.0,2.0,17,0.00,,,0.00,VWS V14.00,2013-06-29 16:06:00,
2013-06-29 09:08:00,90.5,39.8,30.12,SW,225,0.0,0.0,17,0.00,,,0.00,VWS V14.00,2013-06-29 16:08:00,
2013-06-29 09:09:00,89.8,39.2,30.12,SSW,202,1.3,1.3,17,0.00,,,0.00,VWS V14.00,2013-06-29 16:09:00,
2013-06-29 09:10:00,89.8,39.2,30.12,SSW,202,1.3,1.3,17,0.00,,,0.00,VWS V14.00,2013-06-29 16:10:00,
2013-06-29 09:11:00,89.4,40.4,30.12,WSW,248,0.0,0.0,18,0.00,,,0.00,VWS V14.00,2013-06-29 16:11:00,
2013-06-29 09:12:00,89.4,40.4,30.12,WSW,248,0.0,0.0,18,0.00,,,0.00,VWS V14.00,2013-06-29 16:12:00,
2013-06-29 09:13:00,89.2,40.2,30.12,SSW,202,0.0,0.0,18,0.00,,,0.00,VWS V14.00,2013-06-29 16:13:00,
2013-06-29 09:14:00,89.2,40.2,30.12,SSW,202,0.0,0.0,18,0.00,,,0.00,VWS V14.00,2013-06-29 16:14:00,
2013-06-29 09:15:00,88.9,39.9,30.12,SSW,202,0.0,0.0,18,0.00,,,0.00,VWS V14.00,2013-06-29 16:15:00,
2013-06-29 09:16:00,88.7,39.8,30.12,South,180,0.0,0.0,18,0.00,,,0.00,VWS V14.00,2013-06-29 16:16:00,
2013-06-29 09:17:00,88.7,39.8,30.12,South,180,0.0,0.0,18,0.00,,,0.00,VWS V14.00,2013-06-29 16:17:00,
2013-06-29 09:18:00,88.7,39.8,30.12,SSW,202,0.0,0.0,18,0.00,,,0.00,VWS V14.00,2013-06-29 16:18:00,
2013-06-29 09:19:00,88.7,39.8,30.12,South,180,0.0,0.0,18,0.00,,,0.00,VWS V14.00,2013-06-29 16:19:00,
2013-06-29 09:20:00,88.5,39.7,30.12,SW,225,0.0,0.0,18,0.00,,,0.00,VWS V14.00,2013-06-29 16:20:00,
2013-06-29 09:21:00,88.5,39.7,30.12,SW,225,0.0,0.0,18,0.00,,,0.00,VWS V14.00,2013-06-29 16:21:00,
2013-06-29 09:22:00,88.9,39.9,30.12,SW,225,0.0,0.0,18,0.00,,,0.00,VWS V14.00,2013-06-29 16:22:00,
2013-06-29 09:23:00,88.9,39.9,30.12,SSW,202,0.0,0.0,18,0.00,,,0.00,VWS V14.00,2013-06-29 16:23:00,
2013-06-29 09:24:00,88.9,39.9,30.12,SW,225,0.0,0.0,18,0.00,,,0.00,VWS V14.00,2013-06-29 16:24:00,
2013-06-29 09:25:00,88.9,39.9,30.12,SW,225,0.0,0.0,18,0.00,,,0.00,VWS V14.00,2013-06-29 16:25:00,
2013-06-29 09:26:00,88.9,39.9,30.12,SW,225,1.6,1.6,18,0.00,,,0.00,VWS V14.00,2013-06-29 16:26:00,
2013-06-29 09:27:00,89.1,40.1,30.12,SW,225,2.0,2.0,18,0.00,,,0.00,VWS V14.00,2013-06-29 16:27:00,
2013-06-29 09:28:00,89.1,40.1,30.12,SW,225,1.1,1.1,18,0.00,,,0.00,VWS V14.00,2013-06-29 16:28:00,
2013-06-29 09:29:00,89.2,40.2,30.12,SW,225,0.9,1.1,18,0.00,,,0.00,VWS V14.00,2013-06-29 16:29:00,
2013-06-29 09:30:00,89.2,40.2,30.12,SW,225,0.9,0.9,18,0.00,,,0.00,VWS V14.00,2013-06-29 16:30:00,
2013-06-29 09:31:00,89.6,40.5,30.12,WNW,292,1.6,2.0,18,0.00,,,0.00,VWS V14.00,2013-06-29 16:31:00,
2013-06-29 09:32:00,90.0,40.8,30.12,SW,225,0.0,1.6,18,0.00,,,0.00,VWS V14.00,2013-06-29 16:32:00,
2013-06-29 09:33:00,90.0,40.8,30.12,SSW,202,0.0,0.0,18,0.00,,,0.00,VWS V14.00,2013-06-29 16:33:00,
2013-06-29 09:34:00,90.3,41.1,30.12,SSW,202,0.0,0.0,18,0.00,,,0.00,VWS V14.00,2013-06-29 16:34:00,
2013-06-29 09:35:00,90.3,41.1,30.12,SSW,202,0.0,0.0,18,0.00,,,0.00,VWS V14.00,2013-06-29 16:35:00,
2013-06-29 09:36:00,90.7,41.4,30.12,West,270,1.1,1.1,18,0.00,,,0.00,VWS V14.00,2013-06-29 16:36:00,
2013-06-29 09:37:00,90.7,41.4,30.12,SSW,202,0.0,1.1,18,0.00,,,0.00,VWS V14.00,2013-06-29 16:37:00,
2013-06-29 09:38:00,91.2,41.8,30.12,SSW,202,0.0,0.0,18,0.00,,,0.00,VWS V14.00,2013-06-29 16:38:00,
2013-06-29 09:39:00,91.4,40.5,30.12,SW,225,1.1,1.1,17,0.00,,,0.00,VWS V14.00,2013-06-29 16:39:00,
2013-06-29 09:40:00,91.4,40.5,30.12,SW,225,1.6,1.6,17,0.00,,,0.00,VWS V14.00,2013-06-29 16:40:00,
2013-06-29 09:41:00,91.6,40.7,30.12,SW,225,0.0,2.5,17,0.00,,,0.00,VWS V14.00,2013-06-29 16:41:00,
2013-06-29 09:42:00,91.6,40.7,30.12,SW,225,0.0,0.0,17,0.00,,,0.00,VWS V14.00,2013-06-29 16:42:00,
2013-06-29 09:43:00,91.9,40.9,30.12,SSW,202,0.0,0.0,17,0.00,,,0.00,VWS V14.00,2013-06-29 16:43:00,
2013-06-29 09:44:00,91.9,40.9,30.12,SW,225,0.0,1.1,17,0.00,,,0.00,VWS V14.00,2013-06-29 16:44:00,
2013-06-29 09:45:00,92.3,41.2,30.12,SW,225,0.0,0.0,17,0.00,,,0.00,VWS V14.00,2013-06-29 16:45:00,
2013-06-29 09:46:00,92.5,41.4,30.12,SW,225,2.0,2.0,17,0.00,,,0.00,VWS V14.00,2013-06-29 16:46:00,
2013-06-29 09:47:00,92.5,41.4,30.12,WNW,292,1.1,2.0,17,0.00,,,0.00,VWS V14.00,2013-06-29 16:47:00,
2013-06-29 09:48:00,92.3,41.2,30.12,WNW,292,0.9,1.1,17,0.00,,,0.00,VWS V14.00,2013-06-29 16:48:00,
2013-06-29 09:49:00,92.3,41.2,30.12,West,270,0.0,0.9,17,0.00,,,0.00,VWS V14.00,2013-06-29 16:49:00,
2013-06-29 09:50:00,92.5,41.4,30.12,NNW,338,0.0,0.0,17,0.00,,,0.00,VWS V14.00,2013-06-29 16:50:00,
2013-06-29 09:51:00,92.5,41.4,30.12,NNW,338,0.0,0.0,17,0.00,,,0.00,VWS V14.00,2013-06-29 16:51:00,
2013-06-29 09:52:00,92.8,41.7,30.12,SW,225,1.1,1.1,17,0.00,,,0.00,VWS V14.00,2013-06-29 16:52:00,
2013-06-29 09:53:00,92.8,41.7,30.12,North,0,0.0,1.1,17,0.00,,,0.00,VWS V14.00,2013-06-29 16:53:00,
2013-06-29 09:54:00,93.0,41.8,30.12,WSW,248,1.1,1.1,17,0.00,,,0.00,VWS V14.00,2013-06-29 16:54:00,
2013-06-29 09:55:00,93.9,41.0,30.12,WSW,248,0.9,1.1,16,0.00,,,0.00,VWS V14.00,2013-06-29 16:55:00,
2013-06-29 09:56:00,93.9,41.0,30.12,WSW,248,0.0,0.9,16,0.00,,,0.00,VWS V14.00,2013-06-29 16:56:00,
2013-06-29 09:57:00,95.2,42.0,30.12,WSW,248,0.0,0.0,16,0.00,,,0.00,VWS V14.00,2013-06-29 16:57:00,
2013-06-29 09:58:00,95.2,42.0,30.12,WNW,292,1.1,2.0,16,0.00,,,0.00,VWS V14.00,2013-06-29 16:58:00,
2013-06-29 09:59:00,95.5,42.2,30.12,WSW,248,0.0,1.1,16,0.00,,,0.00,VWS V14.00,2013-06-29 16:59:00,
2013-06-29 10:00:00,95.5,42.2,30.12,NNW,338,0.0,0.0,16,0.00,,,0.00,VWS V14.00,2013-06-29 17:00:00,
2013-06-29 10:01:00,96.3,42.8,30.12,NNE,22,1.1,1.1,16,0.00,,,0.00,VWS V14.00,2013-06-29 17:01:00,
2013-06-29 10:02:00,96.6,43.1,30.12,NW,315,0.0,1.1,16,0.00,,,0.00,VWS V14.00,2013-06-29 17:02:00,
2013-06-29 10:03:00,96.6,43.1,30.12,NW,315,2.7,2.7,16,0.00,,,0.00,VWS V14.00,2013-06-29 17:03:00,
2013-06-29 10:04:00,96.6,43.1,30.12,WNW,292,3.6,3.6,16,0.00,,,0.00,VWS V14.00,2013-06-29 17:04:00,
2013-06-29 10:05:00,96.6,43.1,30.12,West,270,1.1,3.6,16,0.00,,,0.00,VWS V14.00,2013-06-29 17:05:00,
2013-06-29 10:06:00,96.6,43.1,30.12,West,270,0.0,1.1,16,0.00,,,0.00,VWS V14.00,2013-06-29 17:06:00,
2013-06-29 10:07:00,96.6,43.1,30.12,WSW,248,1.3,1.3,16,0.00,,,0.00,VWS V14.00,2013-06-29 17:07:00,
2013-06-29 10:08:00,97.2,43.5,30.12,NE,45,1.6,1.6,16,0.00,,,0.00,VWS V14.00,2013-06-29 17:08:00,
2013-06-29 10:09:00,97.0,43.4,30.12,NNW,338,0.0,2.5,16,0.00,,,0.00,VWS V14.00,2013-06-29 17:09:00,
2013-06-29 10:10:00,97.0,43.4,30.12,NNW,338,0.0,0.0,16,0.00,,,0.00,VWS V14.00,2013-06-29 17:10:00,
2013-06-29 10:11:00,97.3,43.7,30.12,NW,315,2.2,2.2,16,0.00,,,0.00,VWS V14.00,2013-06-29 17:11:00,
2013-06-29 10:12:00,97.3,43.7,30.12,NNW,338,1.1,2.2,16,0.00,,,0.00,VWS V14.00,2013-06-29 17:12:00,
2013-06-29 10:13:00,97.9,44.1,30.12,SSW,202,0.0,1.1,16,0.00,,,0.00,VWS V14.00,2013-06-29 17:13:00,
2013-06-29 10:14:00,97.9,44.1,30.12,West,270,0.0,0.0,16,0.00,,,0.00,VWS V14.00,2013-06-29 17:14:00,
2013-06-29 10:15:00,98.8,43.2,30.12,WNW,292,2.7,2.7,15,0.00,,,0.00,VWS V14.00,2013-06-29 17:15:00,
2013-06-29 10:16:00,98.8,43.2,30.12,WNW,292,2.0,2.7,15,0.00,,,0.00,VWS V14.00,2013-06-29 17:16:00,
2013-06-29 10:17:00,98.6,43.0,30.12,WNW,292,1.3,2.0,15,0.00,,,0.00,VWS V14.00,2013-06-29 17:17:00,
2013-06-29 10:18:00,99.1,43.4,30.12,WSW,248,1.6,1.6,15,0.00,,,0.00,VWS V14.00,2013-06-29 17:18:00,
2013-06-29 10:19:00,99.1,43.4,30.12,NW,315,4.0,4.0,15,0.00,,,0.00,VWS V14.00,2013-06-29 17:19:00,
2013-06-29 10:20:00,99.3,39.9,30.12,WNW,292,2.5,4.0,13,0.00,,,0.00,VWS V14.00,2013-06-29 17:20:00,
2013-06-29 10:21:00,99.3,39.9,30.12,NW,315,4.7,4.7,13,0.00,,,0.00,VWS V14.00,2013-06-29 17:21:00,
2013-06-29 10:22:00,98.4,39.2,30.12,North,0,3.6,4.7,13,0.00,,,0.00,VWS V14.00,2013-06-29 17:22:00,
2013-06-29 10:23:00,98.4,39.2,30.12,North,0,3.4,3.6,13,0.00,,,0.00,VWS V14.00,2013-06-29 17:23:00,
2013-06-29 10:24:00,98.2,39.0,30.12,WNW,292,0.0,3.4,13,0.00,,,0.00,VWS V14.00,2013-06-29 17:24:00,
2013-06-29 10:25:00,97.5,38.5,30.12,West,270,2.0,2.0,13,0.00,,,0.00,VWS V14.00,2013-06-29 17:25:00,
2013-06-29 10:26:00,97.5,38.5,30.12,WNW,292,2.5,2.5,13,0.00,,,0.00,VWS V14.00,2013-06-29 17:26:00,
2013-06-29 10:27:00,97.0,38.0,30.12,WSW,248,3.6,3.6,13,0.00,,,0.00,VWS V14.00,2013-06-29 17:27:00,
2013-06-29 10:28:00,97.0,38.0,30.12,WNW,292,2.0,3.6,13,0.00,,,0.00,VWS V14.00,2013-06-29 17:28:00,
2013-06-29 10:29:00,96.4,39.5,30.12,North,0,2.5,2.5,14,0.00,,,0.00,VWS V14.00,2013-06-29 17:29:00,
2013-06-29 10:30:00,96.4,39.5,30.12,West,270,1.1,2.5,14,0.00,,,0.00,VWS V14.00,2013-06-29 17:30:00,
2013-06-29 10:31:00,95.9,39.1,30.12,WSW,248,2.0,2.0,14,0.00,,,0.00,VWS V14.00,2013-06-29 17:31:00,
2013-06-29 10:32:00,96.1,39.2,30.12,West,270,0.0,2.0,14,0.00,,,0.00,VWS V14.00,2013-06-29 17:32:00,
2013-06-29 10:33:00,96.1,39.2,30.12,NNW,338,1.3,1.3,14,0.00,,,0.00,VWS V14.00,2013-06-29 17:33:00,
2013-06-29 10:34:00,95.9,39.1,30.12,NNW,338,0.0,1.3,14,0.00,,,0.00,VWS V14.00,2013-06-29 17:34:00,
2013-06-29 10:35:00,95.9,39.1,30.12,WSW,248,1.1,1.1,14,0.00,,,0.00,VWS V14.00,2013-06-29 17:35:00,
2013-06-29 10:36:00,95.4,38.7,30.12,SW,225,1.3,1.3,14,0.00,,,0.00,VWS V14.00,2013-06-29 17:36:00,
2013-06-29 10:37:00,95.4,38.7,30.12,NNW,338,1.6,1.6,14,0.00,,,0.00,VWS V14.00,2013-06-29 17:37:00,
2013-06-29 10:38:00,95.4,38.7,30.12,NW,315,1.1,1.6,14,0.00,,,0.00,VWS V14.00,2013-06-29 17:38:00,
2013-06-29 10:39:00,95.4,38.7,30.12,NW,315,1.1,1.1,14,0.00,,,0.00,VWS V14.00,2013-06-29 17:39:00,
2013-06-29 10:40:00,95.4,38.7,30.12,WNW,292,0.0,1.1,14,0.00,,,0.00,VWS V14.00,2013-06-29 17:40:00,
2013-06-29 10:41:00,95.4,38.7,30.12,WNW,292,0.0,0.0,14,0.00,,,0.00,VWS V14.00,2013-06-29 17:41:00,
2013-06-29 10:42:00,95.4,38.7,30.12,WNW,292,0.0,0.0,14,0.00,,,0.00,VWS V14.00,2013-06-29 17:42:00,
2013-06-29 10:43:00,95.7,39.0,30.12,SSW,202,1.6,1.6,14,0.00,,,0.00,VWS V14.00,2013-06-29 17:43:00,
2013-06-29 10:44:00,95.7,39.0,30.12,SSW,202,0.0,1.6,14,0.00,,,0.00,VWS V14.00,2013-06-29 17:44:00,
2013-06-29 10:45:00,95.9,39.1,30.12,SSW,202,0.9,0.9,14,0.00,,,0.00,VWS V14.00,2013-06-29 17:45:00,
2013-06-29 10:46:00,95.9,39.1,30.12,WSW,248,0.0,0.9,14,0.00,,,0.00,VWS V14.00,2013-06-29 17:46:00,
2013-06-29 10:47:00,95.9,39.1,30.12,SSE,158,2.0,2.0,14,0.00,,,0.00,VWS V14.00,2013-06-29 17:47:00,
2013-06-29 10:48:00,95.9,33.0,30.12,West,270,2.5,2.5,11,0.00,,,0.00,VWS V14.00,2013-06-29 17:48:00,
2013-06-29 10:49:00,95.9,33.0,30.12,WSW,248,2.0,2.5,11,0.00,,,0.00,VWS V14.00,2013-06-29 17:49:00,
2013-06-29 10:50:00,95.7,39.0,30.12,WSW,248,1.6,2.0,14,0.00,,,0.00,VWS V14.00,2013-06-29 17:50:00,
2013-06-29 10:51:00,95.7,39.0,30.12,NNW,338,1.6,1.6,14,0.00,,,0.00,VWS V14.00,2013-06-29 17:51:00,
2013-06-29 10:52:00,95.9,39.1,30.12,NW,315,0.0,1.6,14,0.00,,,0.00,VWS V14.00,2013-06-29 17:52:00,
2013-06-29 10:53:00,95.9,39.1,30.12,NW,315,0.0,0.0,14,0.00,,,0.00,VWS V14.00,2013-06-29 17:53:00,
2013-06-29 10:54:00,96.3,39.4,30.12,WSW,248,2.9,2.9,14,0.00,,,0.00,VWS V14.00,2013-06-29 17:54:00,
2013-06-29 10:55:00,95.9,33.0,30.12,SW,225,0.9,2.9,11,0.00,,,0.00,VWS V14.00,2013-06-29 17:55:00,
2013-06-29 10:56:00,95.9,33.0,30.12,WSW,248,0.0,0.9,11,0.00,,,0.00,VWS V14.00,2013-06-29 17:56:00,
2013-06-29 10:57:00,95.5,38.8,30.12,SW,225,0.0,0.0,14,0.00,,,0.00,VWS V14.00,2013-06-29 17:57:00,
2013-06-29 10:58:00,95.5,38.8,30.12,SW,225,1.3,1.3,14,0.00,,,0.00,VWS V14.00,2013-06-29 17:58:00,
2013-06-29 10:59:00,95.7,32.9,30.12,NNW,338,3.4,3.4,11,0.00,,,0.00,VWS V14.00,2013-06-29 17:59:00,
2013-06-29 11:00:00,95.7,32.9,30.12,WSW,248,3.8,3.8,11,0.00,,,0.00,VWS V14.00,2013-06-29 18:00:00,
2013-06-29 11:01:00,95.9,33.0,30.12,WNW,292,4.9,4.9,11,0.00,,,0.00,VWS V14.00,2013-06-29 18:01:00,
2013-06-29 11:02:00,97.0,38.0,30.12,WSW,248,1.1,4.9,13,0.00,,,0.00,VWS V14.00,2013-06-29 18:02:00,
2013-06-29 11:03:00,97.0,38.0,30.12,WSW,248,2.5,2.5,13,0.00,,,0.00,VWS V14.00,2013-06-29 18:03:00,
2013-06-29 11:04:00,98.4,39.2,30.12,WNW,292,2.9,2.9,13,0.00,,,0.00,VWS V14.00,2013-06-29 18:04:00,
2013-06-29 11:05:00,98.4,39.2,30.12,West,270,0.9,2.9,13,0.00,,,0.00,VWS V14.00,2013-06-29 18:05:00,
2013-06-29 11:06:00,99.5,33.4,30.12,WSW,248,4.0,4.0,10,0.00,,,0.00,VWS V14.00,2013-06-29 18:06:00,
2013-06-29 11:07:00,98.8,39.5,30.12,NNW,338,1.1,1.1,13,0.00,,,0.00,VWS V14.00,2013-06-29 18:07:00,
2013-06-29 11:08:00,98.8,39.5,30.12,WNW,292,2.7,2.7,13,0.00,,,0.00,VWS V14.00,2013-06-29 18:08:00,
2013-06-29 11:09:00,98.8,39.5,30.12,WNW,292,2.7,2.7,13,0.00,,,0.00,VWS V14.00,2013-06-29 18:09:00,
2013-06-29 11:10:00,98.2,39.0,30.12,SW,225,2.9,2.9,13,0.00,,,0.00,VWS V14.00,2013-06-29 18:10:00,
2013-06-29 11:11:00,97.7,34.4,30.12,NW,315,1.3,2.9,11,0.00,,,0.00,VWS V14.00,2013-06-29 18:11:00,
2013-06-29 11:12:00,97.7,34.4,30.12,WNW,292,4.9,4.9,11,0.00,,,0.00,VWS V14.00,2013-06-29 18:12:00,
2013-06-29 11:13:00,97.7,34.4,30.12,WNW,292,4.9,4.9,11,0.00,,,0.00,VWS V14.00,2013-06-29 18:13:00,
2013-06-29 11:14:00,97.7,34.4,30.12,WNW,292,0.0,4.9,11,0.00,,,0.00,VWS V14.00,2013-06-29 18:14:00,
2013-06-29 11:15:00,96.8,33.7,30.12,WNW,292,0.0,2.5,11,0.00,,,0.00,VWS V14.00,2013-06-29 18:15:00,
2013-06-29 11:16:00,96.8,33.7,30.12,South,180,0.0,0.0,11,0.00,,,0.00,VWS V14.00,2013-06-29 18:16:00,
2013-06-29 11:17:00,96.6,33.6,30.12,WNW,292,2.2,2.2,11,0.00,,,0.00,VWS V14.00,2013-06-29 18:17:00,
2013-06-29 11:18:00,97.0,33.8,30.12,WSW,248,1.6,2.2,11,0.00,,,0.00,VWS V14.00,2013-06-29 18:18:00,
2013-06-29 11:19:00,97.0,33.8,30.12,WSW,248,1.6,1.6,11,0.00,,,0.00,VWS V14.00,2013-06-29 18:19:00,
2013-06-29 11:20:00,97.9,34.5,30.12,WSW,248,1.6,1.6,11,0.00,,,0.00,VWS V14.00,2013-06-29 18:20:00,
2013-06-29 11:21:00,97.9,34.5,30.12,NNW,338,2.0,2.2,11,0.00,,,0.00,VWS V14.00,2013-06-29 18:21:00,
2013-06-29 11:22:00,99.1,33.1,30.12,NW,315,2.0,2.0,10,0.00,,,0.00,VWS V14.00,2013-06-29 18:22:00,
2013-06-29 11:23:00,99.1,33.1,30.12,WNW,292,2.7,2.7,10,0.00,,,0.00,VWS V14.00,2013-06-29 18:23:00,
2013-06-29 11:24:00,99.9,33.6,30.12,NW,315,2.5,2.7,10,0.00,,,0.00,VWS V14.00,2013-06-29 18:24:00,
2013-06-29 11:25:00,100.2,33.9,30.12,WNW,292,0.9,2.5,10,0.00,,,0.00,VWS V14.00,2013-06-29 18:25:00,
2013-06-29 11:26:00,100.2,33.9,30.12,WNW,292,2.9,2.9,10,0.00,,,0.00,VWS V14.00,2013-06-29 18:26:00,
2013-06-29 11:27:00,100.6,34.2,30.12,NNW,338,1.1,1.1,10,0.00,,,0.00,VWS V14.00,2013-06-29 18:27:00,
2013-06-29 11:28:00,100.6,34.2,30.12,West,270,2.5,2.5,10,0.00,,,0.00,VWS V14.00,2013-06-29 18:28:00,
2013-06-29 11:29:00,100.6,34.2,30.12,WNW,292,3.1,3.1,10,0.00,,,0.00,VWS V14.00,2013-06-29 18:29:00,
2013-06-29 11:30:00,100.6,34.2,30.12,NW,315,2.7,3.1,10,0.00,,,0.00,VWS V14.00,2013-06-29 18:30:00,
2013-06-29 11:31:00,101.1,34.6,30.12,NW,315,1.1,2.7,10,0.00,,,0.00,VWS V14.00,2013-06-29 18:31:00,
2013-06-29 11:32:00,101.3,34.7,30.12,NW,315,3.6,3.6,10,0.00,,,0.00,VWS V14.00,2013-06-29 18:32:00,
2013-06-29 11:33:00,101.3,34.7,30.12,NNW,338,4.9,4.9,10,0.00,,,0.00,VWS V14.00,2013-06-29 18:33:00,
2013-06-29 11:34:00,100.4,34.0,30.12,West,270,1.6,4.9,10,0.00,,,0.00,VWS V14.00,2013-06-29 18:34:00,
2013-06-29 11:35:00,100.4,34.0,30.12,WNW,292,2.0,2.0,10,0.00,,,0.00,VWS V14.00,2013-06-29 18:35:00,
2013-06-29 11:36:00,100.9,34.5,30.12,NW,315,4.7,4.7,10,0.00,,,0.00,VWS V14.00,2013-06-29 18:36:00,
2013-06-29 11:37:00,101.1,34.6,30.12,WSW,248,1.6,1.6,10,0.00,,,0.00,VWS V14.00,2013-06-29 18:37:00,
2013-06-29 11:38:00,101.1,34.6,30.12,NNW,338,1.6,1.6,10,0.00,,,0.00,VWS V14.00,2013-06-29 18:38:00,
2013-06-29 11:39:00,101.1,34.6,30.12,West,270,2.9,2.9,10,0.00,,,0.00,VWS V14.00,2013-06-29 18:39:00,
2013-06-29 11:40:00,101.5,34.9,30.12,NNW,338,2.0,2.9,10,0.00,,,0.00,VWS V14.00,2013-06-29 18:40:00,
2013-06-29 11:41:00,101.8,35.1,30.12,North,0,2.0,2.0,10,0.00,,,0.00,VWS V14.00,2013-06-29 18:41:00,
2013-06-29 11:42:00,101.8,35.1,30.12,West,270,0.9,0.9,10,0.00,,,0.00,VWS V14.00,2013-06-29 18:42:00,
2013-06-29 11:43:00,101.5,34.9,30.12,West,270,2.9,2.9,10,0.00,,,0.00,VWS V14.00,2013-06-29 18:43:00,
2013-06-29 11:44:00,101.5,34.9,30.12,West,270,6.0,6.0,10,0.00,,,0.00,VWS V14.00,2013-06-29 18:44:00,
2013-06-29 11:45:00,101.5,34.9,30.12,West,270,3.6,6.0,10,0.00,,,0.00,VWS V14.00,2013-06-29 18:45:00,
2013-06-29 11:46:00,101.5,34.9,30.12,WNW,292,1.3,3.6,10,0.00,,,0.00,VWS V14.00,2013-06-29 18:46:00,
2013-06-29 11:47:00,101.5,34.9,30.12,West,270,2.7,2.7,10,0.00,,,0.00,VWS V14.00,2013-06-29 18:47:00,
2013-06-29 11:48:00,101.8,35.1,30.12,West,270,1.3,2.7,10,0.00,,,0.00,VWS V14.00,2013-06-29 18:48:00,
2013-06-29 11:49:00,101.8,35.1,30.12,NW,315,1.3,1.3,10,0.00,,,0.00,VWS V14.00,2013-06-29 18:49:00,
2013-06-29 11:50:00,101.8,35.1,30.12,WNW,292,1.1,1.3,10,0.00,,,0.00,VWS V14.00,2013-06-29 18:50:00,
2013-06-29 11:51:00,101.8,35.1,30.12,NW,315,1.3,1.3,10,0.00,,,0.00,VWS V14.00,2013-06-29 18:51:00,
2013-06-29 11:52:00,102.2,32.8,30.12,NW,315,1.3,1.3,9,0.00,,,0.00,VWS V14.00,2013-06-29 18:52:00,
2013-06-29 11:53:00,102.2,32.8,30.12,WNW,292,3.1,3.1,9,0.00,,,0.00,VWS V14.00,2013-06-29 18:53:00,
2013-06-29 11:54:00,102.0,35.3,30.12,WSW,248,4.0,4.0,10,0.00,,,0.00,VWS V14.00,2013-06-29 18:54:00,
2013-06-29 11:55:00,101.5,34.9,30.12,SSW,202,2.7,4.0,10,0.00,,,0.00,VWS V14.00,2013-06-29 18:55:00,
2013-06-29 11:56:00,101.5,34.9,30.12,NNW,338,2.7,2.7,10,0.00,,,0.00,VWS V14.00,2013-06-29 18:56:00,
2013-06-29 11:57:00,101.5,34.9,30.12,WNW,292,2.5,4.0,10,0.00,,,0.00,VWS V14.00,2013-06-29 18:57:00,
2013-06-29 11:58:00,101.5,34.9,30.12,WNW,292,2.5,4.0,10,0.00,,,0.00,VWS V14.00,2013-06-29 18:58:00,
2013-06-29 11:59:00,101.5,34.9,30.12,West,270,1.1,2.5,10,0.00,,,0.00,VWS V14.00,2013-06-29 18:59:00,
2013-06-29 12:00:00,101.5,34.9,30.12,West,270,4.3,4.3,10,0.00,,,0.00,VWS V14.00,2013-06-29 19:00:00,
2013-06-29 12:01:00,101.1,34.6,30.12,WNW,292,1.6,4.3,10,0.00,,,0.00,VWS V14.00,2013-06-29 19:01:00,
2013-06-29 12:02:00,101.5,34.9,30.12,WSW,248,1.1,1.6,10,0.00,,,0.00,VWS V14.00,2013-06-29 19:02:00,
2013-06-29 12:03:00,101.5,34.9,30.12,NNW,338,2.7,2.7,10,0.00,,,0.00,VWS V14.00,2013-06-29 19:03:00,
2013-06-29 12:04:00,102.0,35.3,30.12,NNW,338,2.7,2.7,10,0.00,,,0.00,VWS V14.00,2013-06-29 19:04:00,
2013-06-29 12:05:00,102.0,35.3,30.12,East,90,3.6,3.6,10,0.00,,,0.00,VWS V14.00,2013-06-29 19:05:00,
2013-06-29 12:06:00,102.2,32.8,30.12,WNW,292,0.0,3.6,9,0.00,,,0.00,VWS V14.00,2013-06-29 19:06:00,
2013-06-29 12:07:00,102.6,33.0,30.12,West,270,1.6,1.6,9,0.00,,,0.00,VWS V14.00,2013-06-29 19:07:00,
2013-06-29 12:08:00,102.6,33.0,30.12,NW,315,2.5,2.5,9,0.00,,,0.00,VWS V14.00,2013-06-29 19:08:00,
2013-06-29 12:09:00,102.6,33.0,30.12,NNW,338,3.1,3.1,9,0.00,,,0.00,VWS V14.00,2013-06-29 19:09:00,
2013-06-29 12:10:00,102.7,33.2,30.12,West,270,3.1,3.1,9,0.00,,,0.00,VWS V14.00,2013-06-29 19:10:00,
2013-06-29 12:11:00,102.9,33.3,30.12,West,270,0.0,3.1,9,0.00,,,0.00,VWS V14.00,2013-06-29 19:11:00,
2013-06-29 12:12:00,102.6,33.0,30.12,WNW,292,2.7,2.7,9,0.00,,,0.00,VWS V14.00,2013-06-29 19:12:00,
2013-06-29 12:13:00,102.6,33.0,30.12,WNW,292,2.7,2.7,9,0.00,,,0.00,VWS V14.00,2013-06-29 19:13:00,
2013-06-29 12:14:00,102.6,33.0,30.12,West,270,4.0,4.0,9,0.00,,,0.00,VWS V14.00,2013-06-29 19:14:00,
2013-06-29 12:15:00,102.0,35.3,30.12,WSW,248,2.9,4.0,10,0.00,,,0.00,VWS V14.00,2013-06-29 19:15:00,
2013-06-29 12:16:00,102.0,35.3,30.12,NNE,22,2.5,2.9,10,0.00,,,0.00,VWS V14.00,2013-06-29 19:16:00,
2013-06-29 12:17:00,102.0,35.3,30.12,NNW,338,1.6,1.6,10,0.00,,,0.00,VWS V14.00,2013-06-29 19:17:00,
2013-06-29 12:18:00,102.0,35.3,30.12,North,0,7.2,7.2,10,0.00,,,0.00,VWS V14.00,2013-06-29 19:18:00,
2013-06-29 12:19:00,102.0,35.3,30.12,WNW,292,3.1,7.2,10,0.00,,,0.00,VWS V14.00,2013-06-29 19:19:00,
2013-06-29 12:20:00,101.8,35.1,30.12,WSW,248,0.9,3.1,10,0.00,,,0.00,VWS V14.00,2013-06-29 19:20:00,
2013-06-29 12:21:00,101.8,35.1,30.12,WSW,248,0.9,0.9,10,0.00,,,0.00,VWS V14.00,2013-06-29 19:21:00,
2013-06-29 12:22:00,102.4,32.9,30.12,WSW,248,1.1,1.1,9,0.00,,,0.00,VWS V14.00,2013-06-29 19:22:00,
2013-06-29 12:23:00,102.9,33.3,30.12,WSW,248,1.1,1.1,9,0.00,,,0.00,VWS V14.00,2013-06-29 19:23:00,
2013-06-29 12:24:00,102.9,33.3,30.12,WNW,292,1.3,1.3,9,0.00,,,0.00,VWS V14.00,2013-06-29 19:24:00,
2013-06-29 12:25:00,102.9,33.3,30.12,NNW,338,2.0,2.0,9,0.00,,,0.00,VWS V14.00,2013-06-29 19:25:00,
2013-06-29 12:26:00,103.3,33.6,30.12,NW,315,3.8,3.8,9,0.00,,,0.00,VWS V14.00,2013-06-29 19:26:00,
2013-06-29 12:27:00,102.6,33.0,30.12,NW,315,1.3,2.2,9,0.00,,,0.00,VWS V14.00,2013-06-29 19:27:00,
2013-06-29 12:28:00,102.6,33.0,30.12,NW,315,1.3,2.2,9,0.00,,,0.00,VWS V14.00,2013-06-29 19:28:00,
2013-06-29 12:29:00,102.6,33.0,30.12,NW,315,2.0,2.0,9,0.00,,,0.00,VWS V14.00,2013-06-29 19:29:00,
2013-06-29 12:30:00,102.6,33.0,30.12,North,0,4.3,4.3,9,0.00,,,0.00,VWS V14.00,2013-06-29 19:30:00,
2013-06-29 12:31:00,101.8,35.1,30.12,WNW,292,1.6,4.3,10,0.00,,,0.00,VWS V14.00,2013-06-29 19:31:00,
2013-06-29 12:32:00,102.4,32.9,30.12,West,270,2.2,2.2,9,0.00,,,0.00,VWS V14.00,2013-06-29 19:32:00,
2013-06-29 12:33:00,102.4,32.9,30.12,WSW,248,2.7,2.7,9,0.00,,,0.00,VWS V14.00,2013-06-29 19:33:00,
2013-06-29 12:34:00,102.6,33.0,30.09,West,270,0.0,2.7,9,0.00,,,0.00,VWS V14.00,2013-06-29 19:34:00,
2013-06-29 12:35:00,102.6,33.0,30.09,NNW,338,1.3,1.3,9,0.00,,,0.00,VWS V14.00,2013-06-29 19:35:00,
2013-06-29 12:36:00,102.9,33.3,30.09,SSW,202,1.3,1.3,9,0.00,,,0.00,VWS V14.00,2013-06-29 19:36:00,
2013-06-29 12:37:00,102.9,33.3,30.09,NW,315,1.6,1.6,9,0.00,,,0.00,VWS V14.00,2013-06-29 19:37:00,
2013-06-29 12:38:00,102.7,33.2,30.09,West,270,2.0,2.0,9,0.00,,,0.00,VWS V14.00,2013-06-29 19:38:00,
2013-06-29 12:39:00,102.7,33.2,30.09,WNW,292,3.4,3.4,9,0.00,,,0.00,VWS V14.00,2013-06-29 19:39:00,
2013-06-29 12:40:00,102.9,33.3,30.09,NW,315,4.3,4.3,9,0.00,,,0.00,VWS V14.00,2013-06-29 19:40:00,
2013-06-29 12:41:00,102.9,33.3,30.09,NW,315,2.0,4.3,9,0.00,,,0.00,VWS V14.00,2013-06-29 19:41:00,
2013-06-29 12:42:00,102.9,33.3,30.09,NNW,338,2.9,2.9,9,0.00,,,0.00,VWS V14.00,2013-06-29 19:42:00,
2013-06-29 12:43:00,102.9,33.3,30.09,North,0,2.7,2.9,9,0.00,,,0.00,VWS V14.00,2013-06-29 19:43:00,
2013-06-29 12:44:00,102.9,33.3,30.09,West,270,2.7,2.7,9,0.00,,,0.00,VWS V14.00,2013-06-29 19:44:00,
2013-06-29 12:45:00,102.9,33.3,30.09,West,270,2.7,2.7,9,0.00,,,0.00,VWS V14.00,2013-06-29 19:45:00,
2013-06-29 12:46:00,102.9,33.3,30.09,NE,45,2.9,2.9,9,0.00,,,0.00,VWS V14.00,2013-06-29 19:46:00,
2013-06-29 12:47:00,102.9,33.3,30.09,NE,45,2.9,2.9,9,0.00,,,0.00,VWS V14.00,2013-06-29 19:47:00,
2013-06-29 12:48:00,102.4,32.9,30.09,NE,45,2.9,2.9,9,0.00,,,0.00,VWS V14.00,2013-06-29 19:48:00,
2013-06-29 12:49:00,102.4,32.9,30.09,NE,45,2.9,2.9,9,0.00,,,0.00,VWS V14.00,2013-06-29 19:49:00,
2013-06-29 12:50:00,102.4,32.9,30.09,NE,45,2.9,2.9,9,0.00,,,0.00,VWS V14.00,2013-06-29 19:50:00,
2013-06-29 12:51:00,102.4,32.9,30.09,West,270,2.9,2.9,9,0.00,,,0.00,VWS V14.00,2013-06-29 19:51:00,
2013-06-29 12:52:00,102.4,32.9,30.09,West,270,2.9,2.9,9,0.00,,,0.00,VWS V14.00,2013-06-29 19:52:00,
2013-06-29 12:53:00,102.4,32.9,30.09,West,270,2.9,2.9,9,0.00,,,0.00,VWS V14.00,2013-06-29 19:53:00,
2013-06-29 12:54:00,102.4,32.9,30.09,West,270,2.9,2.9,9,0.00,,,0.00,VWS V14.00,2013-06-29 19:54:00,
2013-06-29 12:55:00,102.4,32.9,30.09,North,0,0.9,2.9,9,0.00,,,0.00,VWS V14.00,2013-06-29 19:55:00,
2013-06-29 12:56:00,102.6,33.0,30.09,NW,315,1.1,1.1,9,0.00,,,0.00,VWS V14.00,2013-06-29 19:56:00,
2013-06-29 12:57:00,102.4,32.9,30.09,WNW,292,4.0,4.0,9,0.00,,,0.00,VWS V14.00,2013-06-29 19:57:00,
2013-06-29 12:58:00,102.4,32.9,30.09,WNW,292,4.0,4.0,9,0.00,,,0.00,VWS V14.00,2013-06-29 19:58:00,
2013-06-29 12:59:00,101.8,35.1,30.09,WNW,292,3.4,3.4,10,0.00,,,0.00,VWS V14.00,2013-06-29 19:59:00,
2013-06-29 13:00:00,101.8,35.1,30.09,NW,315,4.0,4.0,10,0.00,,,0.00,VWS V14.00,2013-06-29 20:00:00,
2013-06-29 13:01:00,101.8,35.1,30.09,NW,315,4.0,4.0,10,0.00,,,0.00,VWS V14.00,2013-06-29 20:01:00,
2013-06-29 13:02:00,101.8,35.1,30.09,NNW,338,5.6,5.6,10,0.00,,,0.00,VWS V14.00,2013-06-29 20:02:00,
2013-06-29 13:03:00,101.8,35.1,30.09,WNW,292,2.9,5.6,10,0.00,,,0.00,VWS V14.00,2013-06-29 20:03:00,
2013-06-29 13:04:00,102.4,32.9,30.09,NNE,22,1.1,2.9,9,0.00,,,0.00,VWS V14.00,2013-06-29 20:04:00,
2013-06-29 13:05:00,102.4,32.9,30.09,WNW,292,1.3,1.3,9,0.00,,,0.00,VWS V14.00,2013-06-29 20:05:00,
2013-06-29 13:06:00,102.4,32.9,30.09,NW,315,2.0,2.0,9,0.00,,,0.00,VWS V14.00,2013-06-29 20:06:00,
2013-06-29 13:07:00,102.4,32.9,30.09,WSW,248,2.9,2.9,9,0.00,,,0.00,VWS V14.00,2013-06-29 20:07:00,
2013-06-29 13:08:00,102.4,32.9,30.09,NNW,338,2.2,2.9,9,0.00,,,0.00,VWS V14.00,2013-06-29 20:08:00,
2013-06-29 13:09:00,102.4,32.9,30.09,NNW,338,2.5,2.5,9,0.00,,,0.00,VWS V14.00,2013-06-29 20:09:00,
2013-06-29 13:10:00,102.4,32.9,30.09,North,0,2.2,2.5,9,0.00,,,0.00,VWS V14.00,2013-06-29 20:10:00,
2013-06-29 13:11:00,102.0,35.3,30.09,WNW,292,3.4,3.4,10,0.00,,,0.00,VWS V14.00,2013-06-29 20:11:00,
2013-06-29 13:12:00,102.0,35.3,30.09,WNW,292,3.4,3.4,10,0.00,,,0.00,VWS V14.00,2013-06-29 20:12:00,
2013-06-29 13:13:00,101.8,35.1,30.09,WSW,248,2.7,3.4,10,0.00,,,0.00,VWS V14.00,2013-06-29 20:13:00,
2013-06-29 13:14:00,101.8,35.1,30.09,WSW,248,4.0,4.0,10,0.00,,,0.00,VWS V14.00,2013-06-29 20:14:00,
2013-06-29 13:15:00,102.2,32.8,30.09,SW,225,3.6,4.0,9,0.00,,,0.00,VWS V14.00,2013-06-29 20:15:00,
2013-06-29 13:16:00,102.2,32.8,30.09,WNW,292,2.5,3.6,9,0.00,,,0.00,VWS V14.00,2013-06-29 20:16:00,
2013-06-29 13:17:00,103.1,33.4,30.09,WSW,248,3.8,3.8,9,0.00,,,0.00,VWS V14.00,2013-06-29 20:17:00,
2013-06-29 13:18:00,102.7,33.2,30.09,WSW,248,3.8,3.8,9,0.00,,,0.00,VWS V14.00,2013-06-29 20:18:00,
2013-06-29 13:19:00,102.7,33.2,30.09,SW,225,0.9,3.8,9,0.00,,,0.00,VWS V14.00,2013-06-29 20:19:00,
2013-06-29 13:20:00,103.3,33.6,30.09,West,270,3.1,3.1,9,0.00,,,0.00,VWS V14.00,2013-06-29 20:20:00,
2013-06-29 13:21:00,103.3,33.6,30.09,West,270,0.9,3.1,9,0.00,,,0.00,VWS V14.00,2013-06-29 20:21:00,
2013-06-29 13:22:00,103.3,33.6,30.09,West,270,0.9,0.9,9,0.00,,,0.00,VWS V14.00,2013-06-29 20:22:00,
2013-06-29 13:23:00,102.9,33.3,30.09,WNW,292,3.8,3.8,9,0.00,,,0.00,VWS V14.00,2013-06-29 20:23:00,
2013-06-29 13:24:00,102.9,33.3,30.09,NW,315,4.9,4.9,9,0.00,,,0.00,VWS V14.00,2013-06-29 20:24:00,
2013-06-29 13:25:00,102.9,33.3,30.09,West,270,1.6,4.9,9,0.00,,,0.00,VWS V14.00,2013-06-29 20:25:00,
2013-06-29 13:26:00,102.7,33.2,30.09,WSW,248,3.1,3.1,9,0.00,,,0.00,VWS V14.00,2013-06-29 20:26:00,
2013-06-29 13:27:00,102.9,33.3,30.09,West,270,3.1,3.1,9,0.00,,,0.00,VWS V14.00,2013-06-29 20:27:00,
2013-06-29 13:28:00,102.9,33.3,30.09,WNW,292,3.1,3.1,9,0.00,,,0.00,VWS V14.00,2013-06-29 20:28:00,
2013-06-29 13:29:00,103.1,33.4,30.09,WNW,292,3.1,3.1,9,0.00,,,0.00,VWS V14.00,2013-06-29 20:29:00,
2013-06-29 13:30:00,103.1,33.4,30.09,NNE,22,3.6,3.6,9,0.00,,,0.00,VWS V14.00,2013-06-29 20:30:00,
2013-06-29 13:31:00,103.1,33.4,30.09,NNE,22,3.6,3.6,9,0.00,,,0.00,VWS V14.00,2013-06-29 20:31:00,
2013-06-29 13:32:00,103.1,33.4,30.09,NNE,22,4.5,4.5,9,0.00,,,0.00,VWS V14.00,2013-06-29 20:32:00,
2013-06-29 13:33:00,103.1,33.4,30.09,NW,315,2.9,2.9,9,0.00,,,0.00,VWS V14.00,2013-06-29 20:33:00,
2013-06-29 13:34:00,103.3,33.6,30.09,NW,315,1.1,2.9,9,0.00,,,0.00,VWS V14.00,2013-06-29 20:34:00,
2013-06-29 13:35:00,103.3,33.6,30.09,NW,315,1.1,1.1,9,0.00,,,0.00,VWS V14.00,2013-06-29 20:35:00,
2013-06-29 13:36:00,102.4,32.9,30.09,ENE,68,3.8,3.8,9,0.00,,,0.00,VWS V14.00,2013-06-29 20:36:00,
2013-06-29 13:37:00,102.4,32.9,30.09,ENE,68,3.8,3.8,9,0.00,,,0.00,VWS V14.00,2013-06-29 20:37:00,
2013-06-29 13:38:00,102.4,32.9,30.09,NNW,338,3.1,3.1,9,0.00,,,0.00,VWS V14.00,2013-06-29 20:38:00,
2013-06-29 13:39:00,102.4,32.9,30.09,NW,315,3.6,3.6,9,0.00,,,0.00,VWS V14.00,2013-06-29 20:39:00,
2013-06-29 13:40:00,102.7,33.2,30.09,NW,315,2.5,3.6,9,0.00,,,0.00,VWS V14.00,2013-06-29 20:40:00,
2013-06-29 13:41:00,102.7,33.2,30.09,WNW,292,2.7,2.7,9,0.00,,,0.00,VWS V14.00,2013-06-29 20:41:00,
2013-06-29 13:42:00,102.7,33.2,30.09,West,270,3.1,3.1,9,0.00,,,0.00,VWS V14.00,2013-06-29 20:42:00,
2013-06-29 13:43:00,102.9,33.3,30.09,WNW,292,4.0,4.0,9,0.00,,,0.00,VWS V14.00,2013-06-29 20:43:00,
2013-06-29 13:44:00,102.9,33.3,30.09,SW,225,1.6,4.0,9,0.00,,,0.00,VWS V14.00,2013-06-29 20:44:00,
2013-06-29 13:45:00,102.6,33.0,30.09,SW,225,1.6,1.6,9,0.00,,,0.00,VWS V14.00,2013-06-29 20:45:00,
2013-06-29 13:46:00,102.6,33.0,30.09,West,270,3.1,3.1,9,0.00,,,0.00,VWS V14.00,2013-06-29 20:46:00,
2013-06-29 13:47:00,102.6,33.0,30.09,NNW,338,1.6,3.1,9,0.00,,,0.00,VWS V14.00,2013-06-29 20:47:00,
2013-06-29 13:48:00,102.6,33.0,30.09,WSW,248,1.3,1.3,9,0.00,,,0.00,VWS V14.00,2013-06-29 20:48:00,
2013-06-29 13:49:00,102.6,33.0,30.09,West,270,4.9,4.9,9,0.00,,,0.00,VWS V14.00,2013-06-29 20:49:00,
2013-06-29 13:50:00,102.4,32.9,30.09,WNW,292,2.2,4.9,9,0.00,,,0.00,VWS V14.00,2013-06-29 20:50:00,
2013-06-29 13:51:00,102.4,32.9,30.09,West,270,2.5,2.5,9,0.00,,,0.00,VWS V14.00,2013-06-29 20:51:00,
2013-06-29 13:52:00,102.2,32.8,30.09,NW,315,3.6,3.6,9,0.00,,,0.00,VWS V14.00,2013-06-29 20:52:00,
2013-06-29 13:53:00,102.0,35.3,30.09,NNW,338,2.9,2.9,10,0.00,,,0.00,VWS V14.00,2013-06-29 20:53:00,
2013-06-29 13:54:00,102.0,35.3,30.09,WNW,292,3.8,3.8,10,0.00,,,0.00,VWS V14.00,2013-06-29 20:54:00,
2013-06-29 13:55:00,102.0,35.3,30.09,WNW,292,3.8,3.8,10,0.00,,,0.00,VWS V14.00,2013-06-29 20:55:00,
2013-06-29 13:56:00,101.3,34.7,30.09,NNW,338,2.0,3.8,10,0.00,,,0.00,VWS V14.00,2013-06-29 20:56:00,
2013-06-29 13:57:00,101.3,34.7,30.09,West,270,3.4,3.4,10,0.00,,,0.00,VWS V14.00,2013-06-29 20:57:00,
2013-06-29 13:58:00,101.3,34.7,30.09,West,270,2.0,2.0,10,0.00,,,0.00,VWS V14.00,2013-06-29 20:58:00,
2013-06-29 13:59:00,101.8,35.1,30.09,West,270,1.3,2.0,10,0.00,,,0.00,VWS V14.00,2013-06-29 20:59:00,
2013-06-29 14:00:00,101.8,35.1,30.09,NW,315,3.4,3.4,10,0.00,,,0.00,VWS V14.00,2013-06-29 21:00:00,
2013-06-29 14:01:00,102.0,35.3,30.09,WNW,292,3.8,3.8,10,0.00,,,0.00,VWS V14.00,2013-06-29 21:01:00,
2013-06-29 14:02:00,102.0,35.3,30.09,WNW,292,2.2,3.8,10,0.00,,,0.00,VWS V14.00,2013-06-29 21:02:00,
2013-06-29 14:03:00,102.4,32.9,30.09,West,270,2.5,3.4,9,0.00,,,0.00,VWS V14.00,2013-06-29 21:03:00,
2013-06-29 14:04:00,102.6,33.0,30.09,West,270,2.5,3.4,9,0.00,,,0.00,VWS V14.00,2013-06-29 21:04:00,
2013-06-29 14:05:00,102.6,33.0,30.09,NNW,338,3.4,3.4,9,0.00,,,0.00,VWS V14.00,2013-06-29 21:05:00,
2013-06-29 14:06:00,102.6,33.0,30.09,West,270,0.9,3.4,9,0.00,,,0.00,VWS V14.00,2013-06-29 21:06:00,
2013-06-29 14:07:00,102.6,33.0,30.09,NE,45,4.9,4.9,9,0.00,,,0.00,VWS V14.00,2013-06-29 21:07:00,
2013-06-29 14:08:00,102.2,32.8,30.09,NNW,338,2.9,2.9,9,0.00,,,0.00,VWS V14.00,2013-06-29 21:08:00,
2013-06-29 14:09:00,102.2,32.8,30.09,North,0,2.7,2.9,9,0.00,,,0.00,VWS V14.00,2013-06-29 21:09:00,
2013-06-29 14:10:00,102.2,32.8,30.09,WSW,248,1.3,2.7,9,0.00,,,0.00,VWS V14.00,2013-06-29 21:10:00,
2013-06-29 14:11:00,102.7,33.2,30.09,WSW,248,1.3,1.3,9,0.00,,,0.00,VWS V14.00,2013-06-29 21:11:00,
2013-06-29 14:12:00,102.7,33.2,30.09,WNW,292,2.7,2.7,9,0.00,,,0.00,VWS V14.00,2013-06-29 21:12:00,
2013-06-29 14:13:00,102.6,33.0,30.09,NNW,338,4.9,4.9,9,0.00,,,0.00,VWS V14.00,2013-06-29 21:13:00,
2013-06-29 14:14:00,102.6,33.0,30.09,West,270,1.6,4.9,9,0.00,,,0.00,VWS V14.00,2013-06-29 21:14:00,
2013-06-29 14:15:00,102.7,33.2,30.09,NNE,22,3.8,3.8,9,0.00,,,0.00,VWS V14.00,2013-06-29 21:15:00,
2013-06-29 14:16:00,102.7,33.2,30.09,WNW,292,3.4,3.8,9,0.00,,,0.00,VWS V14.00,2013-06-29 21:16:00,
2013-06-29 14:17:00,101.5,34.9,30.09,South,180,4.0,4.0,10,0.00,,,0.00,VWS V14.00,2013-06-29 21:17:00,
2013-06-29 14:18:00,100.2,33.9,30.09,West,270,3.1,3.1,10,0.00,,,0.00,VWS V14.00,2013-06-29 21:18:00,
2013-06-29 14:19:00,100.2,33.9,30.09,West,270,3.1,3.1,10,0.00,,,0.00,VWS V14.00,2013-06-29 21:19:00,
2013-06-29 14:20:00,99.3,27.7,30.09,WNW,292,3.6,3.6,8,0.00,,,0.00,VWS V14.00,2013-06-29 21:20:00,
2013-06-29 14:21:00,99.3,27.7,30.09,NW,315,3.8,3.8,8,0.00,,,0.00,VWS V14.00,2013-06-29 21:21:00,
2013-06-29 14:22:00,98.4,27.1,30.09,WNW,292,3.1,3.8,8,0.00,,,0.00,VWS V14.00,2013-06-29 21:22:00,
2013-06-29 14:23:00,98.1,26.8,30.09,WNW,292,3.4,3.4,8,0.00,,,0.00,VWS V14.00,2013-06-29 21:23:00,
2013-06-29 14:24:00,98.1,26.8,30.09,West,270,2.7,3.4,8,0.00,,,0.00,VWS V14.00,2013-06-29 21:24:00,
2013-06-29 14:25:00,98.1,26.8,30.09,West,270,0.9,2.7,8,0.00,,,0.00,VWS V14.00,2013-06-29 21:25:00,
2013-06-29 14:26:00,98.2,34.8,30.09,NNW,338,3.6,3.6,11,0.00,,,0.00,VWS V14.00,2013-06-29 21:26:00,
2013-06-29 14:27:00,98.1,26.8,30.09,WSW,248,1.6,3.6,8,0.00,,,0.00,VWS V14.00,2013-06-29 21:27:00,
2013-06-29 14:28:00,97.5,26.4,30.09,WNW,292,1.6,1.6,8,0.00,,,0.00,VWS V14.00,2013-06-29 21:28:00,
2013-06-29 14:29:00,97.5,26.4,30.09,WNW,292,2.5,2.5,8,0.00,,,0.00,VWS V14.00,2013-06-29 21:29:00,
2013-06-29 14:30:00,97.5,26.4,30.09,West,270,2.7,2.7,8,0.00,,,0.00,VWS V14.00,2013-06-29 21:30:00,
2013-06-29 14:31:00,98.1,26.8,30.09,WNW,292,2.7,2.7,8,0.00,,,0.00,VWS V14.00,2013-06-29 21:31:00,
2013-06-29 14:32:00,98.1,26.8,30.09,West,270,2.5,2.7,8,0.00,,,0.00,VWS V14.00,2013-06-29 21:32:00,
2013-06-29 14:33:00,98.8,32.8,30.09,NNW,338,2.5,2.9,10,0.00,,,0.00,VWS V14.00,2013-06-29 21:33:00,
2013-06-29 14:34:00,98.8,32.8,30.09,NNW,338,2.5,2.9,10,0.00,,,0.00,VWS V14.00,2013-06-29 21:34:00,
2013-06-29 14:35:00,98.8,32.8,30.09,NNW,338,4.7,4.7,10,0.00,,,0.00,VWS V14.00,2013-06-29 21:35:00,
2013-06-29 14:36:00,98.6,32.7,30.09,NW,315,2.0,4.7,10,0.00,,,0.00,VWS V14.00,2013-06-29 21:36:00,
2013-06-29 14:37:00,98.6,32.7,30.09,NW,315,3.6,3.6,10,0.00,,,0.00,VWS V14.00,2013-06-29 21:37:00,
2013-06-29 14:38:00,99.3,33.2,30.09,WNW,292,3.8,3.8,10,0.00,,,0.00,VWS V14.00,2013-06-29 21:38:00,
2013-06-29 14:39:00,99.3,33.2,30.09,NW,315,2.5,3.8,10,0.00,,,0.00,VWS V14.00,2013-06-29 21:39:00,
2013-06-29 14:40:00,98.4,34.9,30.09,NW,315,3.4,3.4,11,0.00,,,0.00,VWS V14.00,2013-06-29 21:40:00,
2013-06-29 14:41:00,97.3,26.3,30.09,WNW,292,4.3,4.3,8,0.00,,,0.00,VWS V14.00,2013-06-29 21:41:00,
2013-06-29 14:42:00,97.3,26.3,30.09,WNW,292,2.5,4.3,8,0.00,,,0.00,VWS V14.00,2013-06-29 21:42:00,
2013-06-29 14:43:00,98.2,34.8,30.09,West,270,2.5,2.9,11,0.00,,,0.00,VWS V14.00,2013-06-29 21:43:00,
2013-06-29 14:44:00,98.2,34.8,30.09,West,270,2.5,2.9,11,0.00,,,0.00,VWS V14.00,2013-06-29 21:44:00,
2013-06-29 14:45:00,99.0,33.0,30.09,WSW,248,0.9,2.5,10,0.00,,,0.00,VWS V14.00,2013-06-29 21:45:00,
2013-06-29 14:46:00,99.0,33.0,30.09,West,270,1.3,1.3,10,0.00,,,0.00,VWS V14.00,2013-06-29 21:46:00,
2013-06-29 14:47:00,99.7,33.5,30.09,WNW,292,2.7,2.7,10,0.00,,,0.00,VWS V14.00,2013-06-29 21:47:00,
2013-06-29 14:48:00,99.7,33.5,30.09,West,270,2.9,2.9,10,0.00,,,0.00,VWS V14.00,2013-06-29 21:48:00,
2013-06-29 14:49:00,99.7,33.5,30.09,WNW,292,2.0,2.9,10,0.00,,,0.00,VWS V14.00,2013-06-29 21:49:00,
2013-06-29 14:50:00,100.0,33.8,30.06,WNW,292,2.0,2.0,10,0.00,,,0.00,VWS V14.00,2013-06-29 21:50:00,
2013-06-29 14:51:00,100.0,33.8,30.06,WNW,292,1.1,2.0,10,0.00,,,0.00,VWS V14.00,2013-06-29 21:51:00,
2013-06-29 14:52:00,100.4,34.0,30.06,WNW,292,2.7,2.7,10,0.00,,,0.00,VWS V14.00,2013-06-29 21:52:00,
2013-06-29 14:53:00,100.4,34.0,30.06,WNW,292,4.0,4.0,10,0.00,,,0.00,VWS V14.00,2013-06-29 21:53:00,
2013-06-29 14:54:00,100.4,34.0,30.06,West,270,1.3,4.0,10,0.00,,,0.00,VWS V14.00,2013-06-29 21:54:00,
2013-06-29 14:55:00,100.4,34.0,30.06,WSW,248,3.1,3.1,10,0.00,,,0.00,VWS V14.00,2013-06-29 21:55:00,
2013-06-29 14:56:00,100.0,33.8,30.06,West,270,3.6,3.6,10,0.00,,,0.00,VWS V14.00,2013-06-29 21:56:00,
2013-06-29 14:57:00,100.2,33.9,30.06,West,270,2.5,3.6,10,0.00,,,0.00,VWS V14.00,2013-06-29 21:57:00,
2013-06-29 14:58:00,99.9,33.6,30.06,WNW,292,4.9,5.4,10,0.00,,,0.00,VWS V14.00,2013-06-29 21:58:00,
2013-06-29 14:59:00,99.9,33.6,30.06,WNW,292,4.9,5.4,10,0.00,,,0.00,VWS V14.00,2013-06-29 21:59:00,
2013-06-29 15:00:00,99.9,33.6,30.06,WSW,248,2.5,4.9,10,0.00,,,0.00,VWS V14.00,2013-06-29 22:00:00,
2013-06-29 15:01:00,100.2,33.9,30.06,NW,315,2.2,2.5,10,0.00,,,0.00,VWS V14.00,2013-06-29 22:01:00,
2013-06-29 15:02:00,100.2,33.9,30.06,NNW,338,2.0,2.2,10,0.00,,,0.00,VWS V14.00,2013-06-29 22:02:00,
2013-06-29 15:03:00,100.4,34.0,30.06,WNW,292,2.5,3.4,10,0.00,,,0.00,VWS V14.00,2013-06-29 22:03:00,
2013-06-29 15:04:00,100.4,34.0,30.06,WNW,292,2.5,3.4,10,0.00,,,0.00,VWS V14.00,2013-06-29 22:04:00,
2013-06-29 15:05:00,100.2,33.9,30.06,WNW,292,4.0,4.0,10,0.00,,,0.00,VWS V14.00,2013-06-29 22:05:00,
2013-06-29 15:06:00,100.4,34.0,30.06,WNW,292,4.9,4.9,10,0.00,,,0.00,VWS V14.00,2013-06-29 22:06:00,
2013-06-29 15:07:00,100.4,34.0,30.06,WSW,248,0.0,4.9,10,0.00,,,0.00,VWS V14.00,2013-06-29 22:07:00,
2013-06-29 15:08:00,100.4,34.0,30.06,West,270,4.0,4.0,10,0.00,,,0.00,VWS V14.00,2013-06-29 22:08:00,
2013-06-29 15:09:00,100.4,34.0,30.06,West,270,4.0,4.0,10,0.00,,,0.00,VWS V14.00,2013-06-29 22:09:00,
2013-06-29 15:10:00,100.0,33.8,30.06,SW,225,3.1,4.0,10,0.00,,,0.00,VWS V14.00,2013-06-29 22:10:00,
2013-06-29 15:11:00,100.0,33.8,30.06,WSW,248,2.9,3.1,10,0.00,,,0.00,VWS V14.00,2013-06-29 22:11:00,
2013-06-29 15:12:00,100.4,34.0,30.06,WSW,248,4.9,4.9,10,0.00,,,0.00,VWS V14.00,2013-06-29 22:12:00,
2013-06-29 15:13:00,100.4,34.0,30.06,West,270,1.6,4.9,10,0.00,,,0.00,VWS V14.00,2013-06-29 22:13:00,
2013-06-29 15:14:00,100.4,34.0,30.06,WNW,292,2.7,2.7,10,0.00,,,0.00,VWS V14.00,2013-06-29 22:14:00,
2013-06-29 15:15:00,100.0,33.8,30.06,WSW,248,4.7,4.7,10,0.00,,,0.00,VWS V14.00,2013-06-29 22:15:00,
2013-06-29 15:16:00,100.0,33.8,30.06,WSW,248,3.8,4.7,10,0.00,,,0.00,VWS V14.00,2013-06-29 22:16:00,
2013-06-29 15:17:00,100.0,33.8,30.06,WSW,248,2.5,3.8,10,0.00,,,0.00,VWS V14.00,2013-06-29 22:17:00,
2013-06-29 15:18:00,100.0,33.8,30.06,WSW,248,2.5,2.5,10,0.00,,,0.00,VWS V14.00,2013-06-29 22:18:00,
2013-06-29 15:19:00,100.4,34.0,30.06,WSW,248,3.8,3.8,10,0.00,,,0.00,VWS V14.00,2013-06-29 22:19:00,
2013-06-29 15:20:00,100.2,33.9,30.06,WSW,248,2.0,2.9,10,0.00,,,0.00,VWS V14.00,2013-06-29 22:20:00,
2013-06-29 15:21:00,100.2,33.9,30.06,West,270,2.2,2.2,10,0.00,,,0.00,VWS V14.00,2013-06-29 22:21:00,
2013-06-29 15:22:00,100.6,34.2,30.06,North,0,0.9,2.2,10,0.00,,,0.00,VWS V14.00,2013-06-29 22:22:00,
2013-06-29 15:23:00,100.6,34.2,30.06,NW,315,1.6,1.6,10,0.00,,,0.00,VWS V14.00,2013-06-29 22:23:00,
2013-06-29 15:24:00,100.4,34.0,30.06,WNW,292,3.1,3.1,10,0.00,,,0.00,VWS V14.00,2013-06-29 22:24:00,
2013-06-29 15:25:00,100.4,34.0,30.06,NW,315,3.8,3.8,10,0.00,,,0.00,VWS V14.00,2013-06-29 22:25:00,
2013-06-29 15:26:00,100.2,33.9,30.06,NW,315,1.1,3.8,10,0.00,,,0.00,VWS V14.00,2013-06-29 22:26:00,
2013-06-29 15:27:00,100.6,34.2,30.06,NW,315,2.2,2.2,10,0.00,,,0.00,VWS V14.00,2013-06-29 22:27:00,
2013-06-29 15:28:00,100.6,34.2,30.06,West,270,4.7,4.7,10,0.00,,,0.00,VWS V14.00,2013-06-29 22:28:00,
2013-06-29 15:29:00,100.4,34.0,30.06,West,270,4.7,4.7,10,0.00,,,0.00,VWS V14.00,2013-06-29 22:29:00,
2013-06-29 15:30:00,100.4,34.0,30.06,West,270,1.3,3.1,10,0.00,,,0.00,VWS V14.00,2013-06-29 22:30:00,
2013-06-29 15:31:00,100.0,33.8,30.06,NNW,338,1.3,1.3,10,0.00,,,0.00,VWS V14.00,2013-06-29 22:31:00,
2013-06-29 15:32:00,100.0,33.8,30.06,NW,315,3.6,3.6,10,0.00,,,0.00,VWS V14.00,2013-06-29 22:32:00,
2013-06-29 15:33:00,99.9,33.6,30.06,SW,225,2.7,3.6,10,0.00,,,0.00,VWS V14.00,2013-06-29 22:33:00,
2013-06-29 15:34:00,99.7,28.0,30.06,West,270,2.5,2.5,8,0.00,,,0.00,VWS V14.00,2013-06-29 22:34:00,
2013-06-29 15:35:00,99.7,28.0,30.06,West,270,2.5,2.5,8,0.00,,,0.00,VWS V14.00,2013-06-29 22:35:00,
2013-06-29 15:36:00,99.7,28.0,30.06,WNW,292,3.6,3.6,8,0.00,,,0.00,VWS V14.00,2013-06-29 22:36:00,
2013-06-29 15:37:00,99.7,28.0,30.06,WNW,292,4.0,4.0,8,0.00,,,0.00,VWS V14.00,2013-06-29 22:37:00,
2013-06-29 15:38:00,99.7,33.5,30.06,WSW,248,2.0,4.0,10,0.00,,,0.00,VWS V14.00,2013-06-29 22:38:00,
2013-06-29 15:39:00,99.7,33.5,30.06,WNW,292,0.9,2.0,10,0.00,,,0.00,VWS V14.00,2013-06-29 22:39:00,
2013-06-29 15:41:00,99.9,33.6,30.06,WSW,248,3.1,4.0,10,0.00,,,0.00,VWS V14.00,2013-06-29 22:41:00,
2013-06-29 15:42:00,99.9,33.6,30.06,North,0,3.8,3.8,10,0.00,,,0.00,VWS V14.00,2013-06-29 22:42:00,
2013-06-29 15:43:00,99.3,27.7,30.06,WNW,292,5.4,5.4,8,0.00,,,0.00,VWS V14.00,2013-06-29 22:43:00,
2013-06-29 15:44:00,99.3,27.7,30.06,WNW,292,2.5,2.5,8,0.00,,,0.00,VWS V14.00,2013-06-29 22:44:00,
2013-06-29 15:45:00,99.3,27.7,30.06,SSW,202,0.0,2.5,8,0.00,,,0.00,VWS V14.00,2013-06-29 22:45:00,
2013-06-29 15:46:00,99.3,27.7,30.06,WNW,292,2.9,2.9,8,0.00,,,0.00,VWS V14.00,2013-06-29 22:46:00,
2013-06-29 15:47:00,99.5,33.4,30.06,West,270,1.3,2.9,10,0.00,,,0.00,VWS V14.00,2013-06-29 22:47:00,
2013-06-29 15:48:00,99.5,33.4,30.06,WNW,292,3.1,3.1,10,0.00,,,0.00,VWS V14.00,2013-06-29 22:48:00,
2013-06-29 15:49:00,99.5,33.4,30.06,WNW,292,3.1,3.1,10,0.00,,,0.00,VWS V14.00,2013-06-29 22:49:00,
2013-06-29 15:50:00,99.7,33.5,30.06,NW,315,2.2,3.1,10,0.00,,,0.00,VWS V14.00,2013-06-29 22:50:00,
2013-06-29 15:51:00,99.7,33.5,30.06,WNW,292,1.6,2.2,10,0.00,,,0.00,VWS V14.00,2013-06-29 22:51:00,
2013-06-29 15:52:00,99.9,33.6,30.06,WNW,292,1.6,1.6,10,0.00,,,0.00,VWS V14.00,2013-06-29 22:52:00,
2013-06-29 15:53:00,99.9,33.6,30.06,NNW,338,2.7,2.7,10,0.00,,,0.00,VWS V14.00,2013-06-29 22:53:00,
2013-06-29 15:54:00,99.5,33.4,30.06,WNW,292,1.3,1.3,10,0.00,,,0.00,VWS V14.00,2013-06-29 22:54:00,
2013-06-29 15:55:00,99.5,33.4,30.06,WNW,292,1.3,1.3,10,0.00,,,0.00,VWS V14.00,2013-06-29 22:55:00,
2013-06-29 15:56:00,99.9,33.6,30.06,NW,315,3.1,4.0,10,0.00,,,0.00,VWS V14.00,2013-06-29 22:56:00,
2013-06-29 15:57:00,99.1,33.1,30.06,NW,315,3.1,3.1,10,0.00,,,0.00,VWS V14.00,2013-06-29 22:57:00,
2013-06-29 15:58:00,99.1,33.1,30.06,WNW,292,2.9,5.4,10,0.00,,,0.00,VWS V14.00,2013-06-29 22:58:00,
2013-06-29 15:59:00,99.3,33.2,30.06,WNW,292,2.0,2.9,10,0.00,,,0.00,VWS V14.00,2013-06-29 22:59:00,
2013-06-29 16:00:00,99.3,33.2,30.06,West,270,1.1,2.9,10,0.00,,,0.00,VWS V14.00,2013-06-29 23:00:00,
2013-06-29 16:01:00,99.5,33.4,30.06,North,0,2.0,2.0,10,0.00,,,0.00,VWS V14.00,2013-06-29 23:01:00,
2013-06-29 16:02:00,99.5,33.4,30.06,NW,315,2.7,2.7,10,0.00,,,0.00,VWS V14.00,2013-06-29 23:02:00,
2013-06-29 16:03:00,99.3,33.2,30.06,WNW,292,3.4,3.4,10,0.00,,,0.00,VWS V14.00,2013-06-29 23:03:00,
2013-06-29 16:04:00,99.3,33.2,30.06,WNW,292,2.7,2.7,10,0.00,,,0.00,VWS V14.00,2013-06-29 23:04:00,
2013-06-29 16:05:00,99.3,33.2,30.06,NNW,338,3.1,3.1,10,0.00,,,0.00,VWS V14.00,2013-06-29 23:05:00,
2013-06-29 16:06:00,98.6,32.7,30.06,WNW,292,1.6,3.1,10,0.00,,,0.00,VWS V14.00,2013-06-29 23:06:00,
2013-06-29 16:07:00,98.6,32.7,30.06,WNW,292,2.5,2.5,10,0.00,,,0.00,VWS V14.00,2013-06-29 23:07:00,
2013-06-29 16:08:00,97.7,34.4,30.06,ESE,112,3.1,3.1,11,0.00,,,0.00,VWS V14.00,2013-06-29 23:08:00,
2013-06-29 16:09:00,97.0,33.8,30.06,WSW,248,2.0,3.6,11,0.00,,,0.00,VWS V14.00,2013-06-29 23:09:00,
2013-06-29 16:10:00,97.0,33.8,30.06,WSW,248,3.8,3.8,11,0.00,,,0.00,VWS V14.00,2013-06-29 23:10:00,
2013-06-29 16:11:00,97.0,33.8,30.06,WSW,248,3.8,3.8,11,0.00,,,0.00,VWS V14.00,2013-06-29 23:11:00,
2013-06-29 16:12:00,97.3,26.3,30.06,WNW,292,1.3,3.8,8,0.00,,,0.00,VWS V14.00,2013-06-29 23:12:00,
2013-06-29 16:13:00,98.4,34.9,30.06,WNW,292,2.7,2.7,11,0.00,,,0.00,VWS V14.00,2013-06-29 23:13:00,
2013-06-29 16:14:00,98.4,34.9,30.06,WNW,292,2.7,2.7,11,0.00,,,0.00,VWS V14.00,2013-06-29 23:14:00,
2013-06-29 16:15:00,98.4,34.9,30.06,WNW,292,2.0,2.7,11,0.00,,,0.00,VWS V14.00,2013-06-29 23:15:00,
2013-06-29 16:16:00,98.4,34.9,30.06,WSW,248,7.2,7.2,11,0.00,,,0.00,VWS V14.00,2013-06-29 23:16:00,
2013-06-29 16:17:00,98.6,32.7,30.06,NW,315,2.5,7.2,10,0.00,,,0.00,VWS V14.00,2013-06-29 23:17:00,
2013-06-29 16:18:00,98.6,32.7,30.06,WNW,292,4.7,4.7,10,0.00,,,0.00,VWS V14.00,2013-06-29 23:18:00,
2013-06-29 16:19:00,98.2,34.8,30.06,WSW,248,3.4,3.4,11,0.00,,,0.00,VWS V14.00,2013-06-29 23:19:00,
2013-06-29 16:20:00,98.4,34.9,30.06,WSW,248,3.4,3.4,11,0.00,,,0.00,VWS V14.00,2013-06-29 23:20:00,
2013-06-29 16:22:00,98.4,34.9,30.06,NW,315,4.7,4.7,11,0.00,,,0.00,VWS V14.00,2013-06-29 23:22:00,
2013-06-29 16:23:00,98.4,34.9,30.06,WSW,248,2.7,4.7,11,0.00,,,0.00,VWS V14.00,2013-06-29 23:23:00,
2013-06-29 16:24:00,98.4,34.9,30.06,WNW,292,3.8,3.8,11,0.00,,,0.00,VWS V14.00,2013-06-29 23:24:00,
2013-06-29 16:25:00,98.4,34.9,30.06,WNW,292,2.0,3.8,11,0.00,,,0.00,VWS V14.00,2013-06-29 23:25:00,
2013-06-29 16:26:00,97.3,34.1,30.06,West,270,0.9,2.0,11,0.00,,,0.00,VWS V14.00,2013-06-29 23:26:00,
2013-06-29 16:27:00,97.7,34.4,30.06,West,270,0.9,0.9,11,0.00,,,0.00,VWS V14.00,2013-06-29 23:27:00,
2013-06-29 16:28:00,97.7,34.4,30.06,West,270,1.6,2.0,11,0.00,,,0.00,VWS V14.00,2013-06-29 23:28:00,
2013-06-29 16:29:00,98.1,34.7,30.06,WSW,248,2.9,2.9,11,0.00,,,0.00,VWS V14.00,2013-06-29 23:29:00,
2013-06-29 16:30:00,98.1,34.7,30.06,West,270,3.8,3.8,11,0.00,,,0.00,VWS V14.00,2013-06-29 23:30:00,
2013-06-29 16:31:00,98.2,34.8,30.06,NNE,22,5.6,5.6,11,0.00,,,0.00,VWS V14.00,2013-06-29 23:31:00,
2013-06-29 16:32:00,98.2,34.8,30.06,WNW,292,4.0,5.6,11,0.00,,,0.00,VWS V14.00,2013-06-29 23:32:00,
2013-06-29 16:33:00,97.9,34.5,30.06,WSW,248,2.5,4.0,11,0.00,,,0.00,VWS V14.00,2013-06-29 23:33:00,
2013-06-29 16:34:00,98.4,34.9,30.06,East,90,3.8,3.8,11,0.00,,,0.00,VWS V14.00,2013-06-29 23:34:00,
2013-06-29 16:35:00,98.4,34.9,30.06,East,90,3.8,3.8,11,0.00,,,0.00,VWS V14.00,2013-06-29 23:35:00,
2013-06-29 16:36:00,98.1,34.7,30.06,NW,315,2.9,3.8,11,0.00,,,0.00,VWS V14.00,2013-06-29 23:36:00,
2013-06-29 16:37:00,98.1,34.7,30.06,WNW,292,2.7,2.9,11,0.00,,,0.00,VWS V14.00,2013-06-29 23:37:00,
2013-06-29 16:38:00,98.2,34.8,30.06,NNW,338,2.5,2.7,11,0.00,,,0.00,VWS V14.00,2013-06-29 23:38:00,
2013-06-29 16:39:00,98.6,32.7,30.06,West,270,2.5,2.5,10,0.00,,,0.00,VWS V14.00,2013-06-29 23:39:00,
2013-06-29 16:40:00,98.6,32.7,30.06,WSW,248,1.6,2.5,10,0.00,,,0.00,VWS V14.00,2013-06-29 23:40:00,
2013-06-29 16:41:00,98.6,32.7,30.06,West,270,0.9,1.6,10,0.00,,,0.00,VWS V14.00,2013-06-29 23:41:00,
2013-06-29 16:42:00,98.8,32.8,30.06,North,0,2.5,2.5,10,0.00,,,0.00,VWS V14.00,2013-06-29 23:42:00,
2013-06-29 16:43:00,98.8,32.8,30.06,WNW,292,3.6,3.6,10,0.00,,,0.00,VWS V14.00,2013-06-29 23:43:00,
2013-06-29 16:44:00,99.0,33.0,30.06,SW,225,0.9,3.8,10,0.00,,,0.00,VWS V14.00,2013-06-29 23:44:00,
2013-06-29 16:45:00,99.0,33.0,30.06,SW,225,0.9,3.8,10,0.00,,,0.00,VWS V14.00,2013-06-29 23:45:00,
2013-06-29 16:46:00,99.0,33.0,30.06,West,270,0.0,0.9,10,0.00,,,0.00,VWS V14.00,2013-06-29 23:46:00,
2013-06-29 16:47:00,99.3,33.2,30.06,NW,315,3.1,3.1,10,0.00,,,0.00,VWS V14.00,2013-06-29 23:47:00,
2013-06-29 16:48:00,99.3,33.2,30.06,NNW,338,4.3,4.3,10,0.00,,,0.00,VWS V14.00,2013-06-29 23:48:00,
2013-06-29 16:49:00,99.3,33.2,30.06,NNW,338,4.3,4.3,10,0.00,,,0.00,VWS V14.00,2013-06-29 23:49:00,
2013-06-29 16:50:00,99.3,33.2,30.06,NNW,338,2.5,4.3,10,0.00,,,0.00,VWS V14.00,2013-06-29 23:50:00,
2013-06-29 16:51:00,99.1,33.1,30.06,WNW,292,3.1,3.1,10,0.00,,,0.00,VWS V14.00,2013-06-29 23:51:00,
2013-06-29 16:52:00,99.1,39.7,30.06,WNW,292,1.3,3.1,13,0.00,,,0.00,VWS V14.00,2013-06-29 23:52:00,
2013-06-29 16:53:00,99.1,39.7,30.06,WNW,292,0.9,1.3,13,0.00,,,0.00,VWS V14.00,2013-06-29 23:53:00,
2013-06-29 16:54:00,99.7,33.5,30.06,West,270,3.1,3.1,10,0.00,,,0.00,VWS V14.00,2013-06-29 23:54:00,
2013-06-29 16:55:00,99.7,33.5,30.06,West,270,3.1,3.1,10,0.00,,,0.00,VWS V14.00,2013-06-29 23:55:00,
2013-06-29 16:56:00,99.9,33.6,30.06,WNW,292,2.5,2.9,10,0.00,,,0.00,VWS V14.00,2013-06-29 23:56:00,
2013-06-29 16:57:00,99.9,33.6,30.06,WNW,292,3.6,3.6,10,0.00,,,0.00,VWS V14.00,2013-06-29 23:57:00,
2013-06-29 16:58:00,99.3,33.2,30.06,WNW,292,1.6,3.6,10,0.00,,,0.00,VWS V14.00,2013-06-29 23:58:00,
2013-06-29 16:59:00,99.1,33.1,30.06,West,270,3.1,3.1,10,0.00,,,0.00,VWS V14.00,2013-06-29 23:59:00,
2013-06-29 17:00:00,99.1,33.1,30.06,West,270,2.0,3.1,10,0.00,,,0.00,VWS V14.00,2013-06-30 00:00:00,
2013-06-29 17:01:00,99.5,40.0,30.06,WNW,292,3.6,3.6,13,0.00,,,0.00,VWS V14.00,2013-06-30 00:01:00,
2013-06-29 17:02:00,99.5,40.0,30.06,WNW,292,1.1,3.6,13,0.00,,,0.00,VWS V14.00,2013-06-30 00:02:00,
2013-06-29 17:03:00,99.1,39.7,30.06,North,0,3.6,3.6,13,0.00,,,0.00,VWS V14.00,2013-06-30 00:03:00,
2013-06-29 17:04:00,99.1,39.7,30.03,North,0,2.0,3.6,13,0.00,,,0.00,VWS V14.00,2013-06-30 00:04:00,
2013-06-29 17:05:00,99.0,39.6,30.03,NNW,338,5.6,5.6,13,0.00,,,0.00,VWS V14.00,2013-06-30 00:05:00,
2013-06-29 17:06:00,98.4,39.2,30.03,WNW,292,1.1,5.6,13,0.00,,,0.00,VWS V14.00,2013-06-30 00:06:00,
2013-06-29 17:07:00,98.4,39.2,30.03,WSW,248,2.0,2.0,13,0.00,,,0.00,VWS V14.00,2013-06-30 00:07:00,
2013-06-29 17:08:00,98.4,39.2,30.03,NW,315,4.9,4.9,13,0.00,,,0.00,VWS V14.00,2013-06-30 00:08:00,
2013-06-29 17:09:00,98.4,39.2,30.03,WNW,292,2.5,4.9,13,0.00,,,0.00,VWS V14.00,2013-06-30 00:09:00,
2013-06-29 17:10:00,97.9,38.8,30.03,SW,225,1.1,2.5,13,0.00,,,0.00,VWS V14.00,2013-06-30 00:10:00,
2013-06-29 17:11:00,97.9,38.8,30.03,NW,315,2.9,2.9,13,0.00,,,0.00,VWS V14.00,2013-06-30 00:11:00,
2013-06-29 17:12:00,98.4,39.2,30.03,WNW,292,3.6,3.6,13,0.00,,,0.00,VWS V14.00,2013-06-30 00:12:00,
2013-06-29 17:13:00,98.4,39.2,30.03,WNW,292,3.4,3.6,13,0.00,,,0.00,VWS V14.00,2013-06-30 00:13:00,
2013-06-29 17:14:00,98.4,39.2,30.03,NNW,338,3.4,3.4,13,0.00,,,0.00,VWS V14.00,2013-06-30 00:14:00,
2013-06-29 17:15:00,97.5,38.5,30.03,WNW,292,1.3,3.4,13,0.00,,,0.00,VWS V14.00,2013-06-30 00:15:00,
2013-06-29 17:16:00,97.5,38.5,30.03,SE,135,1.6,1.6,13,0.00,,,0.00,VWS V14.00,2013-06-30 00:16:00,
2013-06-29 17:17:00,97.5,38.5,30.03,NNW,338,2.7,2.7,13,0.00,,,0.00,VWS V14.00,2013-06-30 00:17:00,
2013-06-29 17:18:00,97.5,38.5,30.03,WNW,292,4.7,4.7,13,0.00,,,0.00,VWS V14.00,2013-06-30 00:18:00,
2013-06-29 17:19:00,97.5,38.5,30.03,West,270,1.1,4.7,13,0.00,,,0.00,VWS V14.00,2013-06-30 00:19:00,
2013-06-29 17:20:00,97.9,38.8,30.03,NNW,338,2.5,2.5,13,0.00,,,0.00,VWS V14.00,2013-06-30 00:20:00,
2013-06-29 17:21:00,97.9,38.8,30.03,WNW,292,2.0,3.8,13,0.00,,,0.00,VWS V14.00,2013-06-30 00:21:00,
2013-06-29 17:22:00,97.9,38.8,30.03,WNW,292,2.0,2.0,13,0.00,,,0.00,VWS V14.00,2013-06-30 00:22:00,
2013-06-29 17:23:00,97.9,38.8,30.03,WNW,292,4.0,4.0,13,0.00,,,0.00,VWS V14.00,2013-06-30 00:23:00,
2013-06-29 17:24:00,97.5,38.5,30.03,ENE,68,3.8,4.0,13,0.00,,,0.00,VWS V14.00,2013-06-30 00:24:00,
2013-06-29 17:25:00,97.5,38.5,30.03,WNW,292,2.5,3.8,13,0.00,,,0.00,VWS V14.00,2013-06-30 00:25:00,
2013-06-29 17:26:00,97.0,38.0,30.03,WSW,248,0.9,2.5,13,0.00,,,0.00,VWS V14.00,2013-06-30 00:26:00,
2013-06-29 17:27:00,97.0,38.0,30.03,NW,315,2.9,2.9,13,0.00,,,0.00,VWS V14.00,2013-06-30 00:27:00,
2013-06-29 17:28:00,97.3,38.3,30.03,NW,315,2.9,2.9,13,0.00,,,0.00,VWS V14.00,2013-06-30 00:28:00,
2013-06-29 17:29:00,97.3,38.3,30.03,WSW,248,4.3,4.3,13,0.00,,,0.00,VWS V14.00,2013-06-30 00:29:00,
2013-06-29 17:30:00,97.3,38.3,30.03,SSW,202,2.2,4.3,13,0.00,,,0.00,VWS V14.00,2013-06-30 00:30:00,
2013-06-29 17:31:00,97.3,38.3,30.03,WNW,292,3.8,3.8,13,0.00,,,0.00,VWS V14.00,2013-06-30 00:31:00,
2013-06-29 17:32:00,97.3,38.3,30.03,WNW,292,3.4,3.8,13,0.00,,,0.00,VWS V14.00,2013-06-30 00:32:00,
2013-06-29 17:33:00,97.2,38.2,30.03,West,270,3.4,3.4,13,0.00,,,0.00,VWS V14.00,2013-06-30 00:33:00,
2013-06-29 17:34:00,97.2,38.2,30.03,WNW,292,4.7,4.7,13,0.00,,,0.00,VWS V14.00,2013-06-30 00:34:00,
2013-06-29 17:35:00,97.0,38.0,30.03,WNW,292,2.9,4.7,13,0.00,,,0.00,VWS V14.00,2013-06-30 00:35:00,
2013-06-29 17:36:00,97.0,38.0,30.03,WNW,292,2.9,2.9,13,0.00,,,0.00,VWS V14.00,2013-06-30 00:36:00,
2013-06-29 17:37:00,97.0,38.0,30.03,WNW,292,1.1,2.9,13,0.00,,,0.00,VWS V14.00,2013-06-30 00:37:00,
2013-06-29 17:38:00,97.2,38.2,30.03,WNW,292,3.1,3.1,13,0.00,,,0.00,VWS V14.00,2013-06-30 00:38:00,
2013-06-29 17:39:00,97.2,38.2,30.03,West,270,2.2,3.1,13,0.00,,,0.00,VWS V14.00,2013-06-30 00:39:00,
2013-06-29 17:40:00,97.2,38.2,30.03,West,270,2.5,2.5,13,0.00,,,0.00,VWS V14.00,2013-06-30 00:40:00,
2013-06-29 17:41:00,97.2,38.2,30.03,NNW,338,3.1,3.1,13,0.00,,,0.00,VWS V14.00,2013-06-30 00:41:00,
2013-06-29 17:42:00,97.0,38.0,30.03,WNW,292,5.8,5.8,13,0.00,,,0.00,VWS V14.00,2013-06-30 00:42:00,
2013-06-29 17:43:00,96.4,39.5,30.03,WNW,292,3.4,5.8,14,0.00,,,0.00,VWS V14.00,2013-06-30 00:43:00,
2013-06-29 17:44:00,96.4,39.5,30.03,WNW,292,4.3,4.3,14,0.00,,,0.00,VWS V14.00,2013-06-30 00:44:00,
2013-06-29 17:45:00,95.7,39.0,30.03,NW,315,2.5,4.3,14,0.00,,,0.00,VWS V14.00,2013-06-30 00:45:00,
2013-06-29 17:46:00,95.7,39.0,30.03,NW,315,3.4,3.4,14,0.00,,,0.00,VWS V14.00,2013-06-30 00:46:00,
2013-06-29 17:47:00,96.1,39.2,30.03,NNW,338,1.3,3.4,14,0.00,,,0.00,VWS V14.00,2013-06-30 00:47:00,
2013-06-29 17:48:00,96.1,39.2,30.03,NNE,22,1.1,1.3,14,0.00,,,0.00,VWS V14.00,2013-06-30 00:48:00,
2013-06-29 17:49:00,96.8,37.9,30.03,WNW,292,2.7,2.7,13,0.00,,,0.00,VWS V14.00,2013-06-30 00:49:00,
2013-06-29 17:50:00,96.6,39.7,30.03,WNW,292,1.1,2.7,14,0.00,,,0.00,VWS V14.00,2013-06-30 00:50:00,
2013-06-29 17:51:00,96.6,39.7,30.03,WNW,292,1.6,2.7,14,0.00,,,0.00,VWS V14.00,2013-06-30 00:51:00,
2013-06-29 17:52:00,96.4,39.5,30.03,WSW,248,3.1,3.1,14,0.00,,,0.00,VWS V14.00,2013-06-30 00:52:00,
2013-06-29 17:53:00,96.4,39.5,30.03,West,270,1.1,3.1,14,0.00,,,0.00,VWS V14.00,2013-06-30 00:53:00,
2013-06-29 17:54:00,95.9,39.1,30.03,NW,315,2.5,2.5,14,0.00,,,0.00,VWS V14.00,2013-06-30 00:54:00,
2013-06-29 17:55:00,95.9,39.1,30.03,WSW,248,3.6,3.6,14,0.00,,,0.00,VWS V14.00,2013-06-30 00:55:00,
2013-06-29 17:56:00,95.4,38.7,30.03,WSW,248,3.4,3.6,14,0.00,,,0.00,VWS V14.00,2013-06-30 00:56:00,
2013-06-29 17:57:00,95.4,38.7,30.03,NW,315,4.0,4.0,14,0.00,,,0.00,VWS V14.00,2013-06-30 00:57:00,
2013-06-29 17:58:00,95.2,38.5,30.03,West,270,4.5,4.5,14,0.00,,,0.00,VWS V14.00,2013-06-30 00:58:00,
2013-06-29 17:59:00,94.8,38.2,30.03,WSW,248,0.0,4.5,14,0.00,,,0.00,VWS V14.00,2013-06-30 00:59:00,
2013-06-29 18:00:00,94.8,38.2,30.03,West,270,4.3,4.3,14,0.00,,,0.00,VWS V14.00,2013-06-30 01:00:00,
2013-06-29 18:01:00,94.6,38.1,30.03,WNW,292,1.3,4.3,14,0.00,,,0.00,VWS V14.00,2013-06-30 01:01:00,
2013-06-29 18:02:00,94.6,38.1,30.03,NNW,338,3.4,3.4,14,0.00,,,0.00,VWS V14.00,2013-06-30 01:02:00,
2013-06-29 18:03:00,94.6,38.1,30.03,West,270,1.3,3.4,14,0.00,,,0.00,VWS V14.00,2013-06-30 01:03:00,
2013-06-29 18:04:00,94.6,38.1,30.03,NW,315,1.6,1.6,14,0.00,,,0.00,VWS V14.00,2013-06-30 01:04:00,
2013-06-29 18:05:00,93.7,37.4,30.03,West,270,3.6,3.6,14,0.00,,,0.00,VWS V14.00,2013-06-30 01:05:00,
2013-06-29 18:06:00,93.7,37.4,30.03,NW,315,2.2,3.6,14,0.00,,,0.00,VWS V14.00,2013-06-30 01:06:00,
2013-06-29 18:07:00,93.7,37.4,30.03,NW,315,1.1,2.2,14,0.00,,,0.00,VWS V14.00,2013-06-30 01:07:00,
2013-06-29 18:08:00,93.2,37.0,30.03,NW,315,2.7,2.7,14,0.00,,,0.00,VWS V14.00,2013-06-30 01:08:00,
2013-06-29 18:09:00,93.2,37.0,30.03,WNW,292,3.4,3.4,14,0.00,,,0.00,VWS V14.00,2013-06-30 01:09:00,
2013-06-29 18:10:00,92.7,36.5,30.03,East,90,2.9,3.4,14,0.00,,,0.00,VWS V14.00,2013-06-30 01:10:00,
2013-06-29 18:11:00,92.7,36.5,30.03,WSW,248,2.0,2.9,14,0.00,,,0.00,VWS V14.00,2013-06-30 01:11:00,
2013-06-29 18:12:00,92.7,36.5,30.03,WNW,292,3.1,3.1,14,0.00,,,0.00,VWS V14.00,2013-06-30 01:12:00,
2013-06-29 18:13:00,92.1,36.1,30.03,NW,315,2.0,3.1,14,0.00,,,0.00,VWS V14.00,2013-06-30 01:13:00,
2013-06-29 18:14:00,92.1,36.1,30.03,WNW,292,0.0,2.0,14,0.00,,,0.00,VWS V14.00,2013-06-30 01:14:00,
2013-06-29 18:15:00,91.8,35.8,30.03,WSW,248,3.1,3.1,14,0.00,,,0.00,VWS V14.00,2013-06-30 01:15:00,
2013-06-29 18:16:00,91.8,35.8,30.03,WSW,248,2.9,3.1,14,0.00,,,0.00,VWS V14.00,2013-06-30 01:16:00,
2013-06-29 18:17:00,91.8,35.8,30.03,WSW,248,4.7,4.7,14,0.00,,,0.00,VWS V14.00,2013-06-30 01:17:00,
2013-06-29 18:18:00,91.8,35.8,30.03,WSW,248,2.7,4.7,14,0.00,,,0.00,VWS V14.00,2013-06-30 01:18:00,
2013-06-29 18:19:00,91.4,35.6,30.03,WSW,248,1.3,2.7,14,0.00,,,0.00,VWS V14.00,2013-06-30 01:19:00,
2013-06-29 18:20:00,91.2,37.2,30.03,South,180,2.5,2.5,15,0.00,,,0.00,VWS V14.00,2013-06-30 01:20:00,
2013-06-29 18:21:00,91.2,37.2,30.03,West,270,4.0,4.0,15,0.00,,,0.00,VWS V14.00,2013-06-30 01:21:00,
2013-06-29 18:22:00,90.7,36.7,30.03,WSW,248,2.0,4.0,15,0.00,,,0.00,VWS V14.00,2013-06-30 01:22:00,
2013-06-29 18:23:00,90.7,36.7,30.03,NW,315,3.1,3.1,15,0.00,,,0.00,VWS V14.00,2013-06-30 01:23:00,
2013-06-29 18:24:00,90.7,39.9,30.03,NW,315,2.5,3.1,17,0.00,,,0.00,VWS V14.00,2013-06-30 01:24:00,
2013-06-29 18:25:00,90.7,39.9,30.03,West,270,2.7,2.7,17,0.00,,,0.00,VWS V14.00,2013-06-30 01:25:00,
2013-06-29 18:26:00,90.3,36.5,30.03,WSW,248,1.1,2.7,15,0.00,,,0.00,VWS V14.00,2013-06-30 01:26:00,
2013-06-29 18:27:00,90.3,36.5,30.03,WNW,292,0.9,1.1,15,0.00,,,0.00,VWS V14.00,2013-06-30 01:27:00,
2013-06-29 18:28:00,90.1,39.5,30.03,WSW,248,1.3,1.3,17,0.00,,,0.00,VWS V14.00,2013-06-30 01:28:00,
2013-06-29 18:29:00,90.0,39.3,30.03,WNW,292,2.5,2.5,17,0.00,,,0.00,VWS V14.00,2013-06-30 01:29:00,
2013-06-29 18:30:00,90.0,39.3,30.03,WSW,248,2.9,2.9,17,0.00,,,0.00,VWS V14.00,2013-06-30 01:30:00,
2013-06-29 18:31:00,90.0,39.3,30.03,NNW,338,2.9,2.9,17,0.00,,,0.00,VWS V14.00,2013-06-30 01:31:00,
2013-06-29 18:32:00,90.0,39.3,30.03,WNW,292,1.3,2.9,17,0.00,,,0.00,VWS V14.00,2013-06-30 01:32:00,
2013-06-29 18:33:00,89.8,39.2,30.03,NNW,338,1.6,1.6,17,0.00,,,0.00,VWS V14.00,2013-06-30 01:33:00,
2013-06-29 18:34:00,89.8,39.2,30.03,WNW,292,1.3,1.6,17,0.00,,,0.00,VWS V14.00,2013-06-30 01:34:00,
2013-06-29 18:35:00,89.4,40.4,30.03,WSW,248,2.0,2.0,18,0.00,,,0.00,VWS V14.00,2013-06-30 01:35:00,
2013-06-29 18:37:00,89.4,40.4,30.03,WSW,248,3.4,3.4,18,0.00,,,0.00,VWS V14.00,2013-06-30 01:37:00,
2013-06-29 18:38:00,89.2,40.2,30.03,WNW,292,3.6,3.6,18,0.00,,,0.00,VWS V14.00,2013-06-30 01:38:00,
2013-06-29 18:39:00,89.2,40.2,30.03,WSW,248,2.5,3.6,18,0.00,,,0.00,VWS V14.00,2013-06-30 01:39:00,
2013-06-29 18:40:00,89.1,40.1,30.03,WSW,248,2.0,2.5,18,0.00,,,0.00,VWS V14.00,2013-06-30 01:40:00,
2013-06-29 18:41:00,89.1,40.1,30.03,WSW,248,0.9,2.0,18,0.00,,,0.00,VWS V14.00,2013-06-30 01:41:00,
2013-06-29 18:42:00,89.1,40.1,30.03,WNW,292,3.4,3.4,18,0.00,,,0.00,VWS V14.00,2013-06-30 01:42:00,
2013-06-29 18:43:00,89.1,40.1,30.03,NW,315,2.0,3.4,18,0.00,,,0.00,VWS V14.00,2013-06-30 01:43:00,
2013-06-29 18:44:00,88.7,39.8,30.03,WNW,292,2.9,2.9,18,0.00,,,0.00,VWS V14.00,2013-06-30 01:44:00,
2013-06-29 18:45:00,88.5,39.7,30.03,West,270,3.8,3.8,18,0.00,,,0.00,VWS V14.00,2013-06-30 01:45:00,
2013-06-29 18:46:00,88.5,39.7,30.03,WSW,248,1.6,3.8,18,0.00,,,0.00,VWS V14.00,2013-06-30 01:46:00,
2013-06-29 18:47:00,88.5,39.7,30.03,WNW,292,2.5,2.5,18,0.00,,,0.00,VWS V14.00,2013-06-30 01:47:00,
2013-06-29 18:48:00,88.5,39.7,30.03,WSW,248,1.3,2.5,18,0.00,,,0.00,VWS V14.00,2013-06-30 01:48:00,
2013-06-29 18:49:00,88.3,39.5,30.03,WNW,292,0.0,1.3,18,0.00,,,0.00,VWS V14.00,2013-06-30 01:49:00,
2013-06-29 18:50:00,88.2,39.4,30.03,West,270,0.9,0.9,18,0.00,,,0.00,VWS V14.00,2013-06-30 01:50:00,
2013-06-29 18:51:00,88.2,39.4,30.03,WSW,248,2.7,2.7,18,0.00,,,0.00,VWS V14.00,2013-06-30 01:51:00,
2013-06-29 18:52:00,88.2,39.4,30.03,WSW,248,4.0,4.0,18,0.00,,,0.00,VWS V14.00,2013-06-30 01:52:00,
2013-06-29 18:53:00,88.2,39.4,30.03,West,270,2.5,4.0,18,0.00,,,0.00,VWS V14.00,2013-06-30 01:53:00,
2013-06-29 18:54:00,88.0,39.2,30.03,NNW,338,1.1,2.5,18,0.00,,,0.00,VWS V14.00,2013-06-30 01:54:00,
2013-06-29 18:55:00,87.6,38.9,30.03,WNW,292,2.5,2.5,18,0.00,,,0.00,VWS V14.00,2013-06-30 01:55:00,
2013-06-29 18:56:00,87.6,38.9,30.03,WNW,292,0.0,2.5,18,0.00,,,0.00,VWS V14.00,2013-06-30 01:56:00,
2013-06-29 18:57:00,87.6,38.9,30.03,WNW,292,2.0,2.0,18,0.00,,,0.00,VWS V14.00,2013-06-30 01:57:00,
2013-06-29 18:58:00,87.4,38.8,30.03,WSW,248,0.0,2.0,18,0.00,,,0.00,VWS V14.00,2013-06-30 01:58:00,
2013-06-29 18:59:00,87.4,38.8,30.03,WSW,248,0.0,0.0,18,0.00,,,0.00,VWS V14.00,2013-06-30 01:59:00,
2013-06-29 19:00:00,87.4,38.8,30.03,WNW,292,1.1,1.1,18,0.00,,,0.00,VWS V14.00,2013-06-30 02:00:00,
2013-06-29 19:01:00,87.3,38.6,30.03,WSW,248,2.7,2.7,18,0.00,,,0.00,VWS V14.00,2013-06-30 02:01:00,
2013-06-29 19:02:00,87.3,38.6,30.03,West,270,1.6,2.7,18,0.00,,,0.00,VWS V14.00,2013-06-30 02:02:00,
2013-06-29 19:03:00,87.1,38.5,30.03,WNW,292,1.6,1.6,18,0.00,,,0.00,VWS V14.00,2013-06-30 02:03:00,
2013-06-29 19:04:00,87.1,38.5,30.03,WNW,292,2.0,2.0,18,0.00,,,0.00,VWS V14.00,2013-06-30 02:04:00,
2013-06-29 19:05:00,86.9,38.3,30.03,NW,315,0.0,0.0,18,0.00,,,0.00,VWS V14.00,2013-06-30 02:05:00,
2013-06-29 19:06:00,86.9,38.3,30.03,WSW,248,1.6,1.6,18,0.00,,,0.00,VWS V14.00,2013-06-30 02:06:00,
2013-06-29 19:07:00,86.9,38.3,30.03,SW,225,2.7,2.7,18,0.00,,,0.00,VWS V14.00,2013-06-30 02:07:00,
2013-06-29 19:08:00,86.7,38.2,30.03,WSW,248,2.2,2.7,18,0.00,,,0.00,VWS V14.00,2013-06-30 02:08:00,
2013-06-29 19:09:00,86.7,38.2,30.03,WNW,292,1.1,2.2,18,0.00,,,0.00,VWS V14.00,2013-06-30 02:09:00,
2013-06-29 19:10:00,86.5,38.0,30.03,West,270,0.0,2.5,18,0.00,,,0.00,VWS V14.00,2013-06-30 02:10:00,
2013-06-29 19:11:00,86.5,38.0,30.03,West,270,0.0,2.5,18,0.00,,,0.00,VWS V14.00,2013-06-30 02:11:00,
2013-06-29 19:13:00,86.2,37.8,30.03,WSW,248,2.0,2.0,18,0.00,,,0.00,VWS V14.00,2013-06-30 02:13:00,
2013-06-29 19:14:00,86.0,37.6,30.03,WSW,248,3.1,3.1,18,0.00,,,0.00,VWS V14.00,2013-06-30 02:14:00,
2013-06-29 19:15:00,86.0,37.6,30.03,NW,315,3.4,3.4,18,0.00,,,0.00,VWS V14.00,2013-06-30 02:15:00,
2013-06-29 19:16:00,86.0,37.6,30.03,WSW,248,2.5,3.4,18,0.00,,,0.00,VWS V14.00,2013-06-30 02:16:00,
2013-06-29 19:17:00,85.6,37.3,30.03,SW,225,1.6,2.5,18,0.00,,,0.00,VWS V14.00,2013-06-30 02:17:00,
2013-06-29 19:18:00,85.6,37.3,30.03,WNW,292,3.1,3.1,18,0.00,,,0.00,VWS V14.00,2013-06-30 02:18:00,
2013-06-29 19:19:00,85.5,37.2,30.03,West,270,2.0,3.1,18,0.00,,,0.00,VWS V14.00,2013-06-30 02:19:00,
2013-06-29 19:20:00,85.3,37.0,30.03,West,270,2.2,2.2,18,0.00,,,0.00,VWS V14.00,2013-06-30 02:20:00,
2013-06-29 19:21:00,85.3,37.0,30.03,West,270,0.0,2.2,18,0.00,,,0.00,VWS V14.00,2013-06-30 02:21:00,
2013-06-29 19:22:00,84.9,36.7,30.03,West,270,2.7,2.7,18,0.00,,,0.00,VWS V14.00,2013-06-30 02:22:00,
2013-06-29 19:23:00,84.9,36.7,30.03,West,270,0.9,2.7,18,0.00,,,0.00,VWS V14.00,2013-06-30 02:23:00,
2013-06-29 19:24:00,84.7,36.6,30.03,WSW,248,2.0,2.0,18,0.00,,,0.00,VWS V14.00,2013-06-30 02:24:00,
2013-06-29 19:25:00,84.4,36.3,30.03,WSW,248,0.0,2.0,18,0.00,,,0.00,VWS V14.00,2013-06-30 02:25:00,
2013-06-29 19:26:00,84.4,36.3,30.03,WSW,248,2.7,2.7,18,0.00,,,0.00,VWS V14.00,2013-06-30 02:26:00,
2013-06-29 19:27:00,84.4,36.3,30.03,SW,225,0.9,2.7,18,0.00,,,0.00,VWS V14.00,2013-06-30 02:27:00,
2013-06-29 19:28:00,84.0,37.4,30.03,SW,225,1.1,1.1,19,0.00,,,0.00,VWS V14.00,2013-06-30 02:28:00,
2013-06-29 19:29:00,84.0,37.4,30.03,SW,225,1.1,1.1,19,0.00,,,0.00,VWS V14.00,2013-06-30 02:29:00,
2013-06-29 19:30:00,83.8,32.9,30.03,West,270,0.0,0.0,16,0.00,,,0.00,VWS V14.00,2013-06-30 02:30:00,
2013-06-29 19:31:00,83.7,32.8,30.03,WSW,248,2.0,2.0,16,0.00,,,0.00,VWS V14.00,2013-06-30 02:31:00,
2013-06-29 19:32:00,83.7,32.8,30.03,SW,225,4.9,4.9,16,0.00,,,0.00,VWS V14.00,2013-06-30 02:32:00,
2013-06-29 19:33:00,83.7,32.8,30.03,WSW,248,1.1,4.9,16,0.00,,,0.00,VWS V14.00,2013-06-30 02:33:00,
2013-06-29 19:34:00,83.7,32.8,30.03,WSW,248,2.5,2.5,16,0.00,,,0.00,VWS V14.00,2013-06-30 02:34:00,
2013-06-29 19:35:00,83.5,32.6,30.03,SW,225,1.1,2.0,16,0.00,,,0.00,VWS V14.00,2013-06-30 02:35:00,
2013-06-29 19:36:00,83.5,32.6,30.03,SW,225,1.1,2.0,16,0.00,,,0.00,VWS V14.00,2013-06-30 02:36:00,
2013-06-29 19:37:00,83.5,32.6,30.03,SW,225,2.5,2.5,16,0.00,,,0.00,VWS V14.00,2013-06-30 02:37:00,
2013-06-29 19:38:00,83.1,32.3,30.03,WSW,248,3.1,3.1,16,0.00,,,0.00,VWS V14.00,2013-06-30 02:38:00,
2013-06-29 19:39:00,83.1,32.3,30.03,WSW,248,2.7,3.1,16,0.00,,,0.00,VWS V14.00,2013-06-30 02:39:00,
2013-06-29 19:40:00,82.9,32.2,30.03,WNW,292,0.0,0.0,16,0.00,,,0.00,VWS V14.00,2013-06-30 02:40:00,
2013-06-29 19:41:00,82.9,32.2,30.03,WNW,292,1.1,1.1,16,0.00,,,0.00,VWS V14.00,2013-06-30 02:41:00,
2013-06-29 19:42:00,82.8,32.0,30.03,SW,225,0.0,1.1,16,0.00,,,0.00,VWS V14.00,2013-06-30 02:42:00,
2013-06-29 19:43:00,82.8,32.0,30.03,SW,225,0.0,0.0,16,0.00,,,0.00,VWS V14.00,2013-06-30 02:43:00,
2013-06-29 19:44:00,82.8,32.0,30.03,SW,225,0.0,0.0,16,0.00,,,0.00,VWS V14.00,2013-06-30 02:44:00,
2013-06-29 19:45:00,82.6,31.9,30.03,WSW,248,0.0,0.0,16,0.00,,,0.00,VWS V14.00,2013-06-30 02:45:00,
2013-06-29 19:46:00,82.6,31.9,30.03,WSW,248,0.0,0.0,16,0.00,,,0.00,VWS V14.00,2013-06-30 02:46:00,
2013-06-29 19:47:00,82.4,31.8,30.03,SW,225,1.1,1.1,16,0.00,,,0.00,VWS V14.00,2013-06-30 02:47:00,
2013-06-29 19:48:00,82.4,31.8,30.03,SW,225,1.1,1.1,16,0.00,,,0.00,VWS V14.00,2013-06-30 02:48:00,
2013-06-29 19:49:00,82.2,33.1,30.03,SSW,202,0.9,1.1,17,0.00,,,0.00,VWS V14.00,2013-06-30 02:49:00,
2013-06-29 19:50:00,82.0,33.0,30.03,SW,225,0.0,1.1,17,0.00,,,0.00,VWS V14.00,2013-06-30 02:50:00,
2013-06-29 19:51:00,82.0,33.0,30.03,SW,225,0.0,1.1,17,0.00,,,0.00,VWS V14.00,2013-06-30 02:51:00,
2013-06-29 19:52:00,81.7,32.7,30.03,SW,225,0.9,0.9,17,0.00,,,0.00,VWS V14.00,2013-06-30 02:52:00,
2013-06-29 19:53:00,81.7,32.7,30.03,SW,225,0.0,0.9,17,0.00,,,0.00,VWS V14.00,2013-06-30 02:53:00,
2013-06-29 19:54:00,81.5,32.5,30.03,SW,225,0.0,1.1,17,0.00,,,0.00,VWS V14.00,2013-06-30 02:54:00,
2013-06-29 19:55:00,81.1,32.2,30.03,WNW,292,1.1,1.1,17,0.00,,,0.00,VWS V14.00,2013-06-30 02:55:00,
2013-06-29 19:56:00,81.1,32.2,30.03,WNW,292,0.0,1.1,17,0.00,,,0.00,VWS V14.00,2013-06-30 02:56:00,
2013-06-29 19:57:00,81.1,32.2,30.03,WNW,292,2.5,2.5,17,0.00,,,0.00,VWS V14.00,2013-06-30 02:57:00,
2013-06-29 19:58:00,81.0,32.1,30.03,SW,225,0.0,2.5,17,0.00,,,0.00,VWS V14.00,2013-06-30 02:58:00,
2013-06-29 19:59:00,80.8,32.0,30.03,SW,225,0.0,0.0,17,0.00,,,0.00,VWS V14.00,2013-06-30 02:59:00,
2013-06-29 20:00:00,80.6,31.8,30.03,SW,225,0.0,0.0,17,0.00,,,0.00,VWS V14.00,2013-06-30 03:00:00,
2013-06-29 20:01:00,80.6,31.8,30.03,SW,225,0.0,0.0,17,0.00,,,0.00,VWS V14.00,2013-06-30 03:01:00,
2013-06-29 20:02:00,80.6,31.8,30.03,SW,225,0.0,0.0,17,0.00,,,0.00,VWS V14.00,2013-06-30 03:02:00,
2013-06-29 20:03:00,80.2,31.5,30.03,WSW,248,2.0,2.0,17,0.00,,,0.00,VWS V14.00,2013-06-30 03:03:00,
2013-06-29 20:04:00,80.2,31.5,30.03,SW,225,0.0,2.0,17,0.00,,,0.00,VWS V14.00,2013-06-30 03:04:00,
2013-06-29 20:05:00,80.1,35.4,30.03,SW,225,0.9,0.9,20,0.00,,,0.00,VWS V14.00,2013-06-30 03:05:00,
2013-06-29 20:06:00,80.1,35.4,30.03,SW,225,0.9,0.9,20,0.00,,,0.00,VWS V14.00,2013-06-30 03:06:00,
2013-06-29 20:07:00,79.9,35.3,30.03,SW,225,0.0,0.9,20,0.00,,,0.00,VWS V14.00,2013-06-30 03:07:00,
2013-06-29 20:08:00,79.7,35.1,30.03,SW,225,0.0,0.0,20,0.00,,,0.00,VWS V14.00,2013-06-30 03:08:00,
2013-06-29 20:09:00,79.7,35.1,30.03,SW,225,0.0,0.0,20,0.00,,,0.00,VWS V14.00,2013-06-30 03:09:00,
2013-06-29 20:10:00,79.3,34.8,30.03,SW,225,0.0,0.0,20,0.00,,,0.00,VWS V14.00,2013-06-30 03:10:00,
2013-06-29 20:11:00,79.3,34.8,30.03,SW,225,0.0,0.0,20,0.00,,,0.00,VWS V14.00,2013-06-30 03:11:00,
2013-06-29 20:12:00,79.2,34.7,30.03,SW,225,0.0,0.0,20,0.00,,,0.00,VWS V14.00,2013-06-30 03:12:00,
2013-06-29 20:13:00,79.2,34.7,30.03,WSW,248,0.0,0.0,20,0.00,,,0.00,VWS V14.00,2013-06-30 03:13:00,
2013-06-29 20:14:00,79.0,34.5,30.03,SW,225,0.0,0.0,20,0.00,,,0.00,VWS V14.00,2013-06-30 03:14:00,
2013-06-29 20:15:00,78.8,34.4,30.03,SW,225,0.0,0.0,20,0.00,,,0.00,VWS V14.00,2013-06-30 03:15:00,
2013-06-29 20:16:00,78.8,34.4,30.03,SW,225,0.0,0.0,20,0.00,,,0.00,VWS V14.00,2013-06-30 03:16:00,
2013-06-29 20:17:00,78.6,34.2,30.03,SW,225,0.0,0.0,20,0.00,,,0.00,VWS V14.00,2013-06-30 03:17:00,
2013-06-29 20:18:00,78.6,34.2,30.03,SW,225,0.0,0.0,20,0.00,,,0.00,VWS V14.00,2013-06-30 03:18:00,
2013-06-29 20:19:00,78.6,34.2,30.03,SW,225,0.0,0.0,20,0.00,,,0.00,VWS V14.00,2013-06-30 03:19:00,
2013-06-29 20:20:00,78.6,34.2,30.03,SW,225,0.0,0.0,20,0.00,,,0.00,VWS V14.00,2013-06-30 03:20:00,
2013-06-29 20:21:00,78.4,34.1,30.03,SW,225,0.0,0.0,20,0.00,,,0.00,VWS V14.00,2013-06-30 03:21:00,
2013-06-29 20:22:00,78.1,33.8,30.03,SW,225,0.0,0.0,20,0.00,,,0.00,VWS V14.00,2013-06-30 03:22:00,
2013-06-29 20:23:00,78.1,33.8,30.03,SW,225,0.0,0.0,20,0.00,,,0.00,VWS V14.00,2013-06-30 03:23:00,
2013-06-29 20:24:00,77.9,33.6,30.03,SW,225,0.0,0.0,20,0.00,,,0.00,VWS V14.00,2013-06-30 03:24:00,
2013-06-29 20:25:00,77.9,33.6,30.03,SW,225,0.0,0.0,20,0.00,,,0.00,VWS V14.00,2013-06-30 03:25:00,
2013-06-29 20:26:00,77.7,33.5,30.03,SW,225,0.0,0.0,20,0.00,,,0.00,VWS V14.00,2013-06-30 03:26:00,
2013-06-29 20:28:00,77.7,33.5,30.03,SW,225,0.0,0.0,20,0.00,,,0.00,VWS V14.00,2013-06-30 03:28:00,
2013-06-29 20:29:00,77.7,33.5,30.03,SW,225,0.0,0.0,20,0.00,,,0.00,VWS V14.00,2013-06-30 03:29:00,
2013-06-29 20:30:00,77.7,33.5,30.03,SW,225,0.0,0.0,20,0.00,,,0.00,VWS V14.00,2013-06-30 03:30:00,
2013-06-29 20:31:00,77.5,33.3,30.03,SW,225,0.0,0.0,20,0.00,,,0.00,VWS V14.00,2013-06-30 03:31:00,
2013-06-29 20:32:00,77.5,33.3,30.03,SW,225,0.0,0.0,20,0.00,,,0.00,VWS V14.00,2013-06-30 03:32:00,
2013-06-29 20:33:00,77.4,33.2,30.03,SW,225,0.0,0.0,20,0.00,,,0.00,VWS V14.00,2013-06-30 03:33:00,
2013-06-29 20:34:00,77.4,33.2,30.03,SW,225,0.0,0.0,20,0.00,,,0.00,VWS V14.00,2013-06-30 03:34:00,
2013-06-29 20:35:00,77.2,33.0,30.03,SW,225,0.0,0.0,20,0.00,,,0.00,VWS V14.00,2013-06-30 03:35:00,
2013-06-29 20:36:00,77.2,33.0,30.03,SW,225,0.0,0.0,20,0.00,,,0.00,VWS V14.00,2013-06-30 03:36:00,
2013-06-29 20:37:00,77.0,32.9,30.03,SW,225,0.0,0.0,20,0.00,,,0.00,VWS V14.00,2013-06-30 03:37:00,
2013-06-29 20:38:00,77.2,33.0,30.03,SW,225,0.0,0.0,20,0.00,,,0.00,VWS V14.00,2013-06-30 03:38:00,
2013-06-29 20:39:00,77.2,33.0,30.03,SW,225,0.0,0.0,20,0.00,,,0.00,VWS V14.00,2013-06-30 03:39:00,
2013-06-29 20:40:00,77.2,34.3,30.03,SW,225,0.0,0.0,21,0.00,,,0.00,VWS V14.00,2013-06-30 03:40:00,
2013-06-29 20:41:00,77.2,34.3,30.03,SW,225,0.0,0.0,21,0.00,,,0.00,VWS V14.00,2013-06-30 03:41:00,
2013-06-29 20:42:00,77.0,34.1,30.03,SW,225,0.0,0.0,21,0.00,,,0.00,VWS V14.00,2013-06-30 03:42:00,
2013-06-29 20:43:00,77.0,34.1,30.03,SSW,202,0.0,0.0,21,0.00,,,0.00,VWS V14.00,2013-06-30 03:43:00,
2013-06-29 20:44:00,77.2,34.3,30.03,SSW,202,0.0,0.0,21,0.00,,,0.00,VWS V14.00,2013-06-30 03:44:00,
2013-06-29 20:45:00,77.4,34.4,30.03,SSW,202,0.0,0.0,21,0.00,,,0.00,VWS V14.00,2013-06-30 03:45:00,
2013-06-29 20:46:00,77.4,34.4,30.03,SSW,202,0.0,0.0,21,0.00,,,0.00,VWS V14.00,2013-06-30 03:46:00,
2013-06-29 20:47:00,77.2,34.3,30.03,SSW,202,0.0,0.0,21,0.00,,,0.00,VWS V14.00,2013-06-30 03:47:00,
2013-06-29 20:48:00,77.2,34.3,30.06,SSW,202,0.0,0.0,21,0.00,,,0.00,VWS V14.00,2013-06-30 03:48:00,
2013-06-29 20:49:00,77.0,34.1,30.06,SSW,202,0.0,0.0,21,0.00,,,0.00,VWS V14.00,2013-06-30 03:49:00,
2013-06-29 20:50:00,77.0,34.1,30.06,SSW,202,0.0,0.0,21,0.00,,,0.00,VWS V14.00,2013-06-30 03:50:00,
2013-06-29 20:51:00,77.0,34.1,30.06,SSW,202,0.0,0.0,21,0.00,,,0.00,VWS V14.00,2013-06-30 03:51:00,
2013-06-29 20:52:00,77.0,34.1,30.06,SSW,202,0.0,0.0,21,0.00,,,0.00,VWS V14.00,2013-06-30 03:52:00,
2013-06-29 20:53:00,77.0,34.1,30.06,SSW,202,0.0,0.0,21,0.00,,,0.00,VWS V14.00,2013-06-30 03:53:00,
2013-06-29 20:54:00,76.6,33.8,30.06,SSW,202,0.0,0.0,21,0.00,,,0.00,VWS V14.00,2013-06-30 03:54:00,
2013-06-29 20:55:00,76.6,33.8,30.06,SSW,202,0.0,0.0,21,0.00,,,0.00,VWS V14.00,2013-06-30 03:55:00,
2013-06-29 20:56:00,76.5,33.7,30.06,SSW,202,0.0,0.0,21,0.00,,,0.00,VWS V14.00,2013-06-30 03:56:00,
2013-06-29 20:57:00,76.5,33.7,30.06,SSW,202,0.0,0.0,21,0.00,,,0.00,VWS V14.00,2013-06-30 03:57:00,
2013-06-29 20:58:00,76.5,33.7,30.06,SSW,202,0.0,0.0,21,0.00,,,0.00,VWS V14.00,2013-06-30 03:58:00,
2013-06-29 20:59:00,76.5,33.7,30.06,SSW,202,0.0,0.0,21,0.00,,,0.00,VWS V14.00,2013-06-30 03:59:00,
2013-06-29 21:00:00,76.6,33.8,30.06,SSW,202,0.0,0.0,21,0.00,,,0.00,VWS V14.00,2013-06-30 04:00:00,
2013-06-29 21:01:00,76.5,33.7,30.06,SSW,202,0.0,0.0,21,0.00,,,0.00,VWS V14.00,2013-06-30 04:01:00,
2013-06-29 21:02:00,76.5,33.7,30.06,SSW,202,0.0,0.0,21,0.00,,,0.00,VWS V14.00,2013-06-30 04:02:00,
2013-06-29 21:03:00,76.1,33.4,30.06,SSW,202,0.0,0.0,21,0.00,,,0.00,VWS V14.00,2013-06-30 04:03:00,
2013-06-29 21:04:00,76.1,33.4,30.06,SSW,202,0.0,0.0,21,0.00,,,0.00,VWS V14.00,2013-06-30 04:04:00,
2013-06-29 21:05:00,75.9,33.2,30.06,SSW,202,0.0,0.0,21,0.00,,,0.00,VWS V14.00,2013-06-30 04:05:00,
2013-06-29 21:06:00,75.9,33.2,30.06,SSW,202,0.0,0.0,21,0.00,,,0.00,VWS V14.00,2013-06-30 04:06:00,
2013-06-29 21:07:00,75.9,34.4,30.06,SSW,202,0.0,0.0,22,0.00,,,0.00,VWS V14.00,2013-06-30 04:07:00,
2013-06-29 21:08:00,75.9,34.4,30.06,SSW,202,0.0,0.0,22,0.00,,,0.00,VWS V14.00,2013-06-30 04:08:00,
2013-06-29 21:09:00,75.9,34.4,30.06,SSW,202,0.0,0.0,22,0.00,,,0.00,VWS V14.00,2013-06-30 04:09:00,
2013-06-29 21:10:00,75.7,34.2,30.06,SSW,202,0.0,0.0,22,0.00,,,0.00,VWS V14.00,2013-06-30 04:10:00,
2013-06-29 21:11:00,75.7,34.2,30.06,SSW,202,0.0,0.0,22,0.00,,,0.00,VWS V14.00,2013-06-30 04:11:00,
2013-06-29 21:12:00,75.6,34.1,30.06,SW,225,0.0,0.0,22,0.00,,,0.00,VWS V14.00,2013-06-30 04:12:00,
2013-06-29 21:13:00,75.6,34.1,30.06,SW,225,0.0,0.0,22,0.00,,,0.00,VWS V14.00,2013-06-30 04:13:00,
2013-06-29 21:14:00,75.6,34.1,30.06,SW,225,0.0,0.0,22,0.00,,,0.00,VWS V14.00,2013-06-30 04:14:00,
2013-06-29 21:15:00,75.4,33.9,30.06,SW,225,0.0,0.0,22,0.00,,,0.00,VWS V14.00,2013-06-30 04:15:00,
2013-06-29 21:16:00,75.4,33.9,30.06,SW,225,0.0,0.0,22,0.00,,,0.00,VWS V14.00,2013-06-30 04:16:00,
2013-06-29 21:17:00,75.2,33.8,30.06,SW,225,0.0,0.0,22,0.00,,,0.00,VWS V14.00,2013-06-30 04:17:00,
2013-06-29 21:18:00,75.2,33.8,30.06,SW,225,0.0,0.0,22,0.00,,,0.00,VWS V14.00,2013-06-30 04:18:00,
2013-06-29 21:19:00,75.2,33.8,30.06,SW,225,0.0,0.0,22,0.00,,,0.00,VWS V14.00,2013-06-30 04:19:00,
2013-06-29 21:20:00,75.2,33.8,30.06,SW,225,0.0,0.0,22,0.00,,,0.00,VWS V14.00,2013-06-30 04:20:00,
2013-06-29 21:21:00,75.0,34.7,30.06,SSW,202,0.0,0.0,23,0.00,,,0.00,VWS V14.00,2013-06-30 04:21:00,
2013-06-29 21:22:00,75.0,34.7,30.06,SW,225,0.0,0.0,23,0.00,,,0.00,VWS V14.00,2013-06-30 04:22:00,
2013-06-29 21:23:00,75.0,34.7,30.06,SSW,202,0.0,0.0,23,0.00,,,0.00,VWS V14.00,2013-06-30 04:23:00,
2013-06-29 21:24:00,75.2,33.8,30.06,SSW,202,0.0,0.0,22,0.00,,,0.00,VWS V14.00,2013-06-30 04:24:00,
2013-06-29 21:25:00,75.2,33.8,30.06,SSW,202,0.0,0.0,22,0.00,,,0.00,VWS V14.00,2013-06-30 04:25:00,
2013-06-29 21:26:00,75.0,34.7,30.06,SSW,202,0.0,0.0,23,0.00,,,0.00,VWS V14.00,2013-06-30 04:26:00,
2013-06-29 21:27:00,75.0,34.7,30.06,SSW,202,0.0,0.0,23,0.00,,,0.00,VWS V14.00,2013-06-30 04:27:00,
2013-06-29 21:28:00,75.0,34.7,30.06,SSW,202,0.0,0.0,23,0.00,,,0.00,VWS V14.00,2013-06-30 04:28:00,
2013-06-29 21:29:00,75.0,34.7,30.06,SSW,202,0.0,0.0,23,0.00,,,0.00,VWS V14.00,2013-06-30 04:29:00,
2013-06-29 21:30:00,75.0,34.7,30.06,SSW,202,0.0,0.0,23,0.00,,,0.00,VWS V14.00,2013-06-30 04:30:00,
2013-06-29 21:31:00,75.0,34.7,30.06,SSW,202,0.0,0.0,23,0.00,,,0.00,VWS V14.00,2013-06-30 04:31:00,
2013-06-29 21:32:00,75.0,34.7,30.06,SSW,202,0.0,0.0,23,0.00,,,0.00,VWS V14.00,2013-06-30 04:32:00,
2013-06-29 21:33:00,74.8,34.6,30.06,SSW,202,0.0,0.0,23,0.00,,,0.00,VWS V14.00,2013-06-30 04:33:00,
2013-06-29 21:34:00,74.8,34.6,30.06,SSW,202,0.0,0.0,23,0.00,,,0.00,VWS V14.00,2013-06-30 04:34:00,
2013-06-29 21:35:00,74.8,35.7,30.06,SSW,202,0.0,0.0,24,0.00,,,0.00,VWS V14.00,2013-06-30 04:35:00,
2013-06-29 21:36:00,74.8,35.7,30.06,SSW,202,0.0,0.0,24,0.00,,,0.00,VWS V14.00,2013-06-30 04:36:00,
2013-06-29 21:37:00,74.7,35.5,30.06,SSW,202,0.0,0.0,24,0.00,,,0.00,VWS V14.00,2013-06-30 04:37:00,
2013-06-29 21:38:00,74.7,35.5,30.06,SSW,202,0.0,0.0,24,0.00,,,0.00,VWS V14.00,2013-06-30 04:38:00,
2013-06-29 21:39:00,74.7,35.5,30.06,SSW,202,0.0,0.0,24,0.00,,,0.00,VWS V14.00,2013-06-30 04:39:00,
2013-06-29 21:40:00,74.5,35.4,30.06,SSW,202,0.0,0.0,24,0.00,,,0.00,VWS V14.00,2013-06-30 04:40:00,
2013-06-29 21:41:00,74.5,35.4,30.06,SSW,202,0.0,0.0,24,0.00,,,0.00,VWS V14.00,2013-06-30 04:41:00,
2013-06-29 21:42:00,74.5,35.4,30.06,SSW,202,0.0,0.0,24,0.00,,,0.00,VWS V14.00,2013-06-30 04:42:00,
2013-06-29 21:43:00,74.5,35.4,30.06,SSW,202,0.0,0.0,24,0.00,,,0.00,VWS V14.00,2013-06-30 04:43:00,
2013-06-29 21:44:00,74.5,35.4,30.06,SSW,202,0.0,0.0,24,0.00,,,0.00,VWS V14.00,2013-06-30 04:44:00,
2013-06-29 21:45:00,74.3,36.2,30.06,SSW,202,0.0,0.0,25,0.00,,,0.00,VWS V14.00,2013-06-30 04:45:00,
2013-06-29 21:46:00,74.3,36.2,30.06,SSW,202,0.0,0.9,25,0.00,,,0.00,VWS V14.00,2013-06-30 04:46:00,
2013-06-29 21:47:00,74.5,36.4,30.06,SSW,202,0.0,0.0,25,0.00,,,0.00,VWS V14.00,2013-06-30 04:47:00,
2013-06-29 21:48:00,74.5,36.4,30.06,SSW,202,0.0,0.0,25,0.00,,,0.00,VWS V14.00,2013-06-30 04:48:00,
2013-06-29 21:49:00,74.5,36.4,30.06,SSW,202,0.0,0.0,25,0.00,,,0.00,VWS V14.00,2013-06-30 04:49:00,
2013-06-29 21:50:00,74.5,36.4,30.06,SSW,202,0.0,0.0,25,0.00,,,0.00,VWS V14.00,2013-06-30 04:50:00,
2013-06-29 21:51:00,74.3,36.2,30.06,SSW,202,0.0,0.0,25,0.00,,,0.00,VWS V14.00,2013-06-30 04:51:00,
2013-06-29 21:52:00,74.1,36.1,30.06,SSW,202,0.0,0.0,25,0.00,,,0.00,VWS V14.00,2013-06-30 04:52:00,
2013-06-29 21:53:00,74.1,36.1,30.06,SSW,202,0.0,0.0,25,0.00,,,0.00,VWS V14.00,2013-06-30 04:53:00,
2013-06-29 21:54:00,73.8,36.8,30.06,SSW,202,0.0,0.0,26,0.00,,,0.00,VWS V14.00,2013-06-30 04:54:00,
2013-06-29 21:55:00,73.8,36.8,30.06,SSW,202,0.0,0.0,26,0.00,,,0.00,VWS V14.00,2013-06-30 04:55:00,
2013-06-29 21:56:00,73.6,36.6,30.06,SSW,202,0.0,0.0,26,0.00,,,0.00,VWS V14.00,2013-06-30 04:56:00,
2013-06-29 21:57:00,73.6,36.6,30.06,SSW,202,0.0,0.0,26,0.00,,,0.00,VWS V14.00,2013-06-30 04:57:00,
2013-06-29 21:58:00,73.6,36.6,30.06,SSW,202,0.0,0.0,26,0.00,,,0.00,VWS V14.00,2013-06-30 04:58:00,
2013-06-29 21:59:00,73.6,36.6,30.06,SSW,202,0.0,0.0,26,0.00,,,0.00,VWS V14.00,2013-06-30 04:59:00,
2013-06-29 22:00:00,73.6,37.6,30.06,SW,225,0.0,0.0,27,0.00,,,0.00,VWS V14.00,2013-06-30 05:00:00,
2013-06-29 22:01:00,73.8,37.7,30.06,SW,225,0.0,0.0,27,0.00,,,0.00,VWS V14.00,2013-06-30 05:01:00,
2013-06-29 22:02:00,73.8,37.7,30.06,SSW,202,0.0,0.0,27,0.00,,,0.00,VWS V14.00,2013-06-30 05:02:00,
2013-06-29 22:03:00,73.8,37.7,30.06,SSW,202,0.0,0.0,27,0.00,,,0.00,VWS V14.00,2013-06-30 05:03:00,
2013-06-29 22:04:00,73.8,37.7,30.06,SSW,202,0.0,0.0,27,0.00,,,0.00,VWS V14.00,2013-06-30 05:04:00,
2013-06-29 22:06:00,73.4,37.4,30.06,SSW,202,0.0,0.0,27,0.00,,,0.00,VWS V14.00,2013-06-30 05:06:00,
2013-06-29 22:07:00,73.6,38.5,30.06,SSW,202,0.0,0.0,28,0.00,,,0.00,VWS V14.00,2013-06-30 05:07:00,
2013-06-29 22:08:00,73.6,38.5,30.06,SSW,202,0.0,0.0,28,0.00,,,0.00,VWS V14.00,2013-06-30 05:08:00,
2013-06-29 22:09:00,73.6,38.5,30.06,SSW,202,0.0,0.0,28,0.00,,,0.00,VWS V14.00,2013-06-30 05:09:00,
2013-06-29 22:10:00,73.6,38.5,30.06,SSW,202,0.0,0.0,28,0.00,,,0.00,VWS V14.00,2013-06-30 05:10:00,
2013-06-29 22:11:00,73.6,38.5,30.06,SSW,202,0.0,0.0,28,0.00,,,0.00,VWS V14.00,2013-06-30 05:11:00,
2013-06-29 22:12:00,73.8,38.7,30.06,SSW,202,0.0,0.0,28,0.00,,,0.00,VWS V14.00,2013-06-30 05:12:00,
2013-06-29 22:13:00,73.8,38.7,30.06,SSW,202,0.0,0.0,28,0.00,,,0.00,VWS V14.00,2013-06-30 05:13:00,
2013-06-29 22:14:00,73.6,38.5,30.06,SSW,202,0.0,0.0,28,0.00,,,0.00,VWS V14.00,2013-06-30 05:14:00,
2013-06-29 22:15:00,73.6,38.5,30.06,SSW,202,0.0,0.0,28,0.00,,,0.00,VWS V14.00,2013-06-30 05:15:00,
2013-06-29 22:16:00,73.6,38.5,30.06,SSW,202,0.0,0.0,28,0.00,,,0.00,VWS V14.00,2013-06-30 05:16:00,
2013-06-29 22:17:00,73.6,39.4,30.06,SSW,202,0.0,0.0,29,0.00,,,0.00,VWS V14.00,2013-06-30 05:17:00,
2013-06-29 22:18:00,73.6,39.4,30.06,SSW,202,0.0,0.0,29,0.00,,,0.00,VWS V14.00,2013-06-30 05:18:00,
2013-06-29 22:19:00,73.8,39.5,30.06,SSW,202,0.0,0.0,29,0.00,,,0.00,VWS V14.00,2013-06-30 05:19:00,
2013-06-29 22:20:00,73.8,39.5,30.06,SSW,202,0.0,0.0,29,0.00,,,0.00,VWS V14.00,2013-06-30 05:20:00,
2013-06-29 22:21:00,73.6,39.4,30.06,SSW,202,0.0,0.0,29,0.00,,,0.00,VWS V14.00,2013-06-30 05:21:00,
2013-06-29 22:22:00,74.1,39.9,30.06,SSW,202,0.0,0.0,29,0.00,,,0.00,VWS V14.00,2013-06-30 05:22:00,
2013-06-29 22:23:00,74.1,39.9,30.06,SSW,202,0.0,0.0,29,0.00,,,0.00,VWS V14.00,2013-06-30 05:23:00,
2013-06-29 22:24:00,73.8,39.5,30.06,SSW,202,0.0,0.0,29,0.00,,,0.00,VWS V14.00,2013-06-30 05:24:00,
2013-06-29 22:25:00,73.8,39.5,30.06,SSW,202,0.0,0.0,29,0.00,,,0.00,VWS V14.00,2013-06-30 05:25:00,
2013-06-29 22:26:00,73.8,39.5,30.06,SSW,202,0.0,0.0,29,0.00,,,0.00,VWS V14.00,2013-06-30 05:26:00,
2013-06-29 22:27:00,73.8,40.4,30.06,SSW,202,0.0,0.0,30,0.00,,,0.00,VWS V14.00,2013-06-30 05:27:00,
2013-06-29 22:28:00,73.8,40.4,30.06,SSW,202,0.0,0.0,30,0.00,,,0.00,VWS V14.00,2013-06-30 05:28:00,
2013-06-29 22:29:00,73.8,40.4,30.06,SSW,202,0.0,0.0,30,0.00,,,0.00,VWS V14.00,2013-06-30 05:29:00,
2013-06-29 22:30:00,73.8,40.4,30.06,SSW,202,0.0,0.0,30,0.00,,,0.00,VWS V14.00,2013-06-30 05:30:00,
2013-06-29 22:31:00,73.8,40.4,30.06,SSW,202,0.0,0.0,30,0.00,,,0.00,VWS V14.00,2013-06-30 05:31:00,
2013-06-29 22:32:00,73.8,40.4,30.06,SSW,202,0.0,0.0,30,0.00,,,0.00,VWS V14.00,2013-06-30 05:32:00,
2013-06-29 22:33:00,73.9,40.6,30.06,SSW,202,0.0,0.0,30,0.00,,,0.00,VWS V14.00,2013-06-30 05:33:00,
2013-06-29 22:34:00,73.9,40.6,30.06,SSW,202,0.0,0.0,30,0.00,,,0.00,VWS V14.00,2013-06-30 05:34:00,
2013-06-29 22:35:00,73.9,40.6,30.06,SSW,202,0.0,0.0,30,0.00,,,0.00,VWS V14.00,2013-06-30 05:35:00,
2013-06-29 22:36:00,73.9,40.6,30.06,SW,225,0.0,0.0,30,0.00,,,0.00,VWS V14.00,2013-06-30 05:36:00,
2013-06-29 22:37:00,73.9,40.6,30.06,SSW,202,0.0,0.0,30,0.00,,,0.00,VWS V14.00,2013-06-30 05:37:00,
2013-06-29 22:38:00,73.9,40.6,30.06,SSW,202,0.0,0.0,30,0.00,,,0.00,VWS V14.00,2013-06-30 05:38:00,
2013-06-29 22:39:00,73.9,40.6,30.06,SW,225,0.0,0.0,30,0.00,,,0.00,VWS V14.00,2013-06-30 05:39:00,
2013-06-29 22:40:00,73.9,40.6,30.06,SSW,202,0.0,0.0,30,0.00,,,0.00,VWS V14.00,2013-06-30 05:40:00,
2013-06-29 22:41:00,73.9,40.6,30.06,SSW,202,0.0,0.0,30,0.00,,,0.00,VWS V14.00,2013-06-30 05:41:00,
2013-06-29 22:42:00,73.9,41.4,30.06,South,180,0.0,0.0,31,0.00,,,0.00,VWS V14.00,2013-06-30 05:42:00,
2013-06-29 22:43:00,73.9,41.4,30.06,South,180,0.9,0.9,31,0.00,,,0.00,VWS V14.00,2013-06-30 05:43:00,
2013-06-29 22:44:00,74.3,40.9,30.06,SSW,202,0.0,0.9,30,0.00,,,0.00,VWS V14.00,2013-06-30 05:44:00,
2013-06-29 22:45:00,74.3,40.9,30.06,South,180,0.0,0.0,30,0.00,,,0.00,VWS V14.00,2013-06-30 05:45:00,
2013-06-29 22:46:00,74.1,41.6,30.06,SSW,202,0.0,0.0,31,0.00,,,0.00,VWS V14.00,2013-06-30 05:46:00,
2013-06-29 22:47:00,73.9,41.4,30.06,SSW,202,0.0,0.0,31,0.00,,,0.00,VWS V14.00,2013-06-30 05:47:00,
2013-06-29 22:48:00,73.9,41.4,30.06,SSW,202,0.0,0.0,31,0.00,,,0.00,VWS V14.00,2013-06-30 05:48:00,
2013-06-29 22:49:00,73.8,41.3,30.06,WSW,248,0.0,0.0,31,0.00,,,0.00,VWS V14.00,2013-06-30 05:49:00,
2013-06-29 22:50:00,73.8,41.3,30.06,SSE,158,0.0,0.0,31,0.00,,,0.00,VWS V14.00,2013-06-30 05:50:00,
2013-06-29 22:51:00,74.1,41.6,30.06,SSW,202,0.0,0.0,31,0.00,,,0.00,VWS V14.00,2013-06-30 05:51:00,
2013-06-29 22:52:00,73.8,41.3,30.06,SSW,202,0.0,0.0,31,0.00,,,0.00,VWS V14.00,2013-06-30 05:52:00,
2013-06-29 22:53:00,73.8,41.3,30.06,SSW,202,0.0,0.0,31,0.00,,,0.00,VWS V14.00,2013-06-30 05:53:00,
2013-06-29 22:54:00,73.4,41.0,30.06,SSW,202,0.0,0.0,31,0.00,,,0.00,VWS V14.00,2013-06-30 05:54:00,
2013-06-29 22:55:00,73.4,41.0,30.06,SSW,202,0.0,0.0,31,0.00,,,0.00,VWS V14.00,2013-06-30 05:55:00,
2013-06-29 22:56:00,73.2,40.8,30.06,SSW,202,0.0,0.0,31,0.00,,,0.00,VWS V14.00,2013-06-30 05:56:00,
2013-06-29 22:57:00,73.2,40.8,30.06,SW,225,0.0,0.0,31,0.00,,,0.00,VWS V14.00,2013-06-30 05:57:00,
2013-06-29 22:58:00,73.2,40.8,30.06,SSW,202,0.0,0.0,31,0.00,,,0.00,VWS V14.00,2013-06-30 05:58:00,
2013-06-29 22:59:00,73.2,40.8,30.06,SSW,202,0.0,0.0,31,0.00,,,0.00,VWS V14.00,2013-06-30 05:59:00,
2013-06-29 23:00:00,73.0,40.7,30.06,SSW,202,0.0,0.0,31,0.00,,,0.00,VWS V14.00,2013-06-30 06:00:00,
2013-06-29 23:01:00,73.0,40.7,30.06,SSW,202,0.0,0.0,31,0.00,,,0.00,VWS V14.00,2013-06-30 06:01:00,
2013-06-29 23:02:00,73.0,40.6,30.06,South,180,0.0,0.0,31,0.00,,,0.00,VWS V14.00,2013-06-30 06:02:00,
2013-06-29 23:03:00,73.0,40.7,30.06,SSW,202,0.0,0.0,31,0.00,,,0.00,VWS V14.00,2013-06-30 06:03:00,
2013-06-29 23:04:00,73.0,40.7,30.06,SSW,202,0.0,0.0,31,0.00,,,0.00,VWS V14.00,2013-06-30 06:04:00,
2013-06-29 23:05:00,72.9,40.5,30.06,SSW,202,0.0,0.0,31,0.00,,,0.00,VWS V14.00,2013-06-30 06:05:00,
2013-06-29 23:06:00,72.9,40.5,30.06,SSW,202,0.0,0.0,31,0.00,,,0.00,VWS V14.00,2013-06-30 06:06:00,
2013-06-29 23:07:00,72.9,40.5,30.06,SSW,202,0.0,0.0,31,0.00,,,0.00,VWS V14.00,2013-06-30 06:07:00,
2013-06-29 23:08:00,72.9,40.5,30.06,SSW,202,0.0,0.0,31,0.00,,,0.00,VWS V14.00,2013-06-30 06:08:00,
2013-06-29 23:09:00,72.9,40.5,30.06,SSW,202,0.0,0.0,31,0.00,,,0.00,VWS V14.00,2013-06-30 06:09:00,
2013-06-29 23:10:00,72.9,40.5,30.06,WSW,248,0.0,0.0,31,0.00,,,0.00,VWS V14.00,2013-06-30 06:10:00,
2013-06-29 23:11:00,72.9,40.5,30.06,WSW,248,0.0,0.0,31,0.00,,,0.00,VWS V14.00,2013-06-30 06:11:00,
2013-06-29 23:12:00,73.2,40.8,30.06,SSW,202,0.0,0.0,31,0.00,,,0.00,VWS V14.00,2013-06-30 06:12:00,
2013-06-29 23:13:00,73.2,40.8,30.06,SSW,202,0.0,0.0,31,0.00,,,0.00,VWS V14.00,2013-06-30 06:13:00,
2013-06-29 23:14:00,73.4,40.1,30.06,SSW,202,0.0,0.0,30,0.00,,,0.00,VWS V14.00,2013-06-30 06:14:00,
2013-06-29 23:15:00,73.4,40.1,30.06,SSW,202,0.0,0.0,30,0.00,,,0.00,VWS V14.00,2013-06-30 06:15:00,
2013-06-29 23:16:00,73.4,40.1,30.06,SSW,202,0.0,0.0,30,0.00,,,0.00,VWS V14.00,2013-06-30 06:16:00,
2013-06-29 23:17:00,73.0,40.6,30.06,SSW,202,0.0,0.0,31,0.00,,,0.00,VWS V14.00,2013-06-30 06:17:00,
2013-06-29 23:18:00,73.0,40.7,30.06,SSW,202,0.0,0.0,31,0.00,,,0.00,VWS V14.00,2013-06-30 06:18:00,
2013-06-29 23:19:00,73.0,40.7,30.06,SSW,202,0.0,0.0,31,0.00,,,0.00,VWS V14.00,2013-06-30 06:19:00,
2013-06-29 23:20:00,73.0,40.7,30.06,SSW,202,0.0,0.0,31,0.00,,,0.00,VWS V14.00,2013-06-30 06:20:00,
2013-06-29 23:21:00,72.9,40.5,30.06,SSW,202,0.0,0.0,31,0.00,,,0.00,VWS V14.00,2013-06-30 06:21:00,
2013-06-29 23:22:00,72.7,40.3,30.06,SSW,202,0.0,0.0,31,0.00,,,0.00,VWS V14.00,2013-06-30 06:22:00,
2013-06-29 23:23:00,72.7,40.3,30.06,SSW,202,0.0,0.0,31,0.00,,,0.00,VWS V14.00,2013-06-30 06:23:00,
2013-06-29 23:24:00,72.5,40.2,30.06,SSW,202,0.0,0.0,31,0.00,,,0.00,VWS V14.00,2013-06-30 06:24:00,
2013-06-29 23:25:00,72.5,40.2,30.06,SSW,202,0.0,0.0,31,0.00,,,0.00,VWS V14.00,2013-06-30 06:25:00,
2013-06-29 23:26:00,72.3,40.0,30.06,SSW,202,0.0,0.0,31,0.00,,,0.00,VWS V14.00,2013-06-30 06:26:00,
2013-06-29 23:27:00,72.5,40.2,30.06,SSW,202,0.0,0.0,31,0.00,,,0.00,VWS V14.00,2013-06-30 06:27:00,
2013-06-29 23:28:00,72.5,40.2,30.06,SSW,202,0.0,0.0,31,0.00,,,0.00,VWS V14.00,2013-06-30 06:28:00,
2013-06-29 23:29:00,72.5,40.2,30.06,SSW,202,0.0,0.0,31,0.00,,,0.00,VWS V14.00,2013-06-30 06:29:00,
2013-06-29 23:30:00,72.3,40.0,30.06,SSW,202,0.0,0.0,31,0.00,,,0.00,VWS V14.00,2013-06-30 06:30:00,
2013-06-29 23:31:00,72.3,40.0,30.06,SSW,202,0.0,0.0,31,0.00,,,0.00,VWS V14.00,2013-06-30 06:31:00,
2013-06-29 23:32:00,72.3,40.0,30.06,SW,225,0.0,0.0,31,0.00,,,0.00,VWS V14.00,2013-06-30 06:32:00,
2013-06-29 23:33:00,72.1,39.9,30.06,SW,225,0.0,0.0,31,0.00,,,0.00,VWS V14.00,2013-06-30 06:33:00,
2013-06-29 23:34:00,72.1,39.9,30.06,South,180,0.0,0.0,31,0.00,,,0.00,VWS V14.00,2013-06-30 06:34:00,
2013-06-29 23:35:00,72.1,39.9,30.06,South,180,0.0,0.0,31,0.00,,,0.00,VWS V14.00,2013-06-30 06:35:00,
2013-06-29 23:36:00,72.1,39.9,30.06,South,180,0.0,0.0,31,0.00,,,0.00,VWS V14.00,2013-06-30 06:36:00,
2013-06-29 23:37:00,72.0,39.7,30.06,South,180,0.0,0.0,31,0.00,,,0.00,VWS V14.00,2013-06-30 06:37:00,
2013-06-29 23:38:00,72.0,39.7,30.06,SSW,202,0.0,0.0,31,0.00,,,0.00,VWS V14.00,2013-06-30 06:38:00,
2013-06-29 23:39:00,72.0,39.7,30.06,SSW,202,0.0,0.0,31,0.00,,,0.00,VWS V14.00,2013-06-30 06:39:00,
2013-06-29 23:40:00,72.0,39.7,30.06,SSW,202,0.0,0.0,31,0.00,,,0.00,VWS V14.00,2013-06-30 06:40:00,
2013-06-29 23:41:00,72.0,39.7,30.06,SSW,202,0.0,0.0,31,0.00,,,0.00,VWS V14.00,2013-06-30 06:41:00,
2013-06-29 23:42:00,71.8,39.5,30.06,SSW,202,0.0,0.0,31,0.00,,,0.00,VWS V14.00,2013-06-30 06:42:00,
2013-06-29 23:43:00,71.8,39.5,30.06,SSW,202,0.0,0.0,31,0.00,,,0.00,VWS V14.00,2013-06-30 06:43:00,
2013-06-29 23:44:00,71.8,39.5,30.06,SSW,202,0.0,0.0,31,0.00,,,0.00,VWS V14.00,2013-06-30 06:44:00,
2013-06-29 23:45:00,71.6,39.4,30.06,SSE,158,0.0,0.0,31,0.00,,,0.00,VWS V14.00,2013-06-30 06:45:00,